Wetterdaten: Sonntag, 23.04.2017
Datum Zeit Temp. Aussen Temp. o. S. +5cm Feuchte Auss BlattFeu 1 Luftdruck Regen Sonnenschein Regendauer Solar Windben Empfang
23.04.2017 00:00 5,2 C 5,0 C 2,8 C 77 % 0 lf 1024,6 hPa 0,0 l/m 0 min 0 min 0 W/m 12,6 km/h (3 Bft) 89,13 %
23.04.2017 00:02 5,2 C 5,0 C 2,8 C 77 % 0 lf 1024,6 hPa 0,0 l/m 0 min 0 min 5 W/m 8,4 km/h (2 Bft) 88,89 %
23.04.2017 00:04 5,2 C 5,0 C 2,8 C 77 % 0 lf 1024,6 hPa 0,0 l/m 0 min 0 min 3 W/m 10,5 km/h (2 Bft) 89,36 %
23.04.2017 00:06 5,1 C 5,0 C 2,8 C 77 % 0 lf 1024,7 hPa 0,0 l/m 0 min 0 min 5 W/m 10,5 km/h (2 Bft) 93,62 %
23.04.2017 00:10 5,1 C 4,4 C 2,8 C 77 % 0 lf 1024,6 hPa 0,0 l/m 0 min 0 min 5 W/m 12,6 km/h (3 Bft) 94,74 %
23.04.2017 00:12 5,1 C 4,4 C 2,8 C 77 % 0 lf 1024,6 hPa 0,0 l/m 0 min 0 min 5 W/m 10,5 km/h (2 Bft) 93,48 %
23.04.2017 00:14 5,1 C 4,4 C 2,8 C 77 % 0 lf 1024,6 hPa 0,0 l/m 0 min 0 min 4 W/m 10,5 km/h (2 Bft) 93,62 %
23.04.2017 00:16 5,1 C 4,4 C 2,8 C 77 % 0 lf 1024,6 hPa 0,0 l/m 0 min 0 min 0 W/m 8,4 km/h (2 Bft) 90,00 %
23.04.2017 00:18 5,1 C 4,4 C 2,8 C 77 % 0 lf 1024,6 hPa 0,0 l/m 0 min 0 min 0 W/m 8,4 km/h (2 Bft) 93,62 %
23.04.2017 00:20 5,0 C 4,4 C 2,8 C 77 % 0 lf 1024,6 hPa 0,0 l/m 0 min 0 min 0 W/m 10,5 km/h (2 Bft) 95,83 %
23.04.2017 00:22 5,0 C 4,4 C 2,8 C 77 % 0 lf 1024,6 hPa 0,0 l/m 0 min 0 min 0 W/m 12,6 km/h (3 Bft) 95,74 %
23.04.2017 00:24 5,0 C 4,4 C 2,2 C 77 % 0 lf 1024,6 hPa 0,0 l/m 0 min 0 min 0 W/m 12,6 km/h (3 Bft) 97,87 %
23.04.2017 00:26 4,9 C 4,4 C 2,2 C 78 % 0 lf 1024,6 hPa 0,0 l/m 0 min 0 min 0 W/m 10,5 km/h (2 Bft) 93,62 %
23.04.2017 00:28 4,9 C 4,4 C 2,2 C 78 % 0 lf 1024,6 hPa 0,0 l/m 0 min 0 min 0 W/m 10,5 km/h (2 Bft) 93,48 %
23.04.2017 00:30 4,9 C 3,9 C 2,2 C 78 % 0 lf 1024,6 hPa 0,0 l/m 0 min 0 min 0 W/m 8,4 km/h (2 Bft) 95,74 %
23.04.2017 00:32 4,9 C 3,9 C 2,2 C 78 % 0 lf 1024,6 hPa 0,0 l/m 0 min 0 min 0 W/m 12,6 km/h (3 Bft) 93,62 %
23.04.2017 00:34 4,8 C 3,9 C 2,2 C 78 % 0 lf 1024,7 hPa 0,0 l/m 0 min 0 min 0 W/m 14,6 km/h (3 Bft) 93,62 %
23.04.2017 00:36 4,8 C 3,9 C 2,2 C 78 % 0 lf 1024,7 hPa 0,0 l/m 0 min 0 min 0 W/m 10,5 km/h (2 Bft) 93,62 %
23.04.2017 00:38 4,8 C 3,9 C 2,2 C 78 % 0 lf 1024,7 hPa 0,0 l/m 0 min 0 min 0 W/m 10,5 km/h (2 Bft) 93,62 %
23.04.2017 00:40 4,8 C 3,9 C 2,2 C 78 % 0 lf 1024,6 hPa 0,0 l/m 0 min 0 min 0 W/m 14,6 km/h (3 Bft) 95,65 %
23.04.2017 00:42 4,7 C 3,9 C 2,2 C 79 % 0 lf 1024,6 hPa 0,0 l/m 0 min 0 min 0 W/m 10,5 km/h (2 Bft) 95,74 %
23.04.2017 00:44 4,7 C 3,9 C 2,2 C 79 % 0 lf 1024,7 hPa 0,0 l/m 0 min 0 min 0 W/m 10,5 km/h (2 Bft) 95,74 %
23.04.2017 00:46 4,7 C 3,9 C 2,2 C 79 % 0 lf 1024,7 hPa 0,0 l/m 0 min 0 min 0 W/m 14,6 km/h (3 Bft) 95,74 %
23.04.2017 00:48 4,7 C 3,9 C 2,2 C 79 % 0 lf 1024,7 hPa 0,0 l/m 0 min 0 min 0 W/m 12,6 km/h (3 Bft) 95,74 %
23.04.2017 00:50 4,6 C 3,9 C 2,2 C 79 % 0 lf 1024,7 hPa 0,0 l/m 0 min 0 min 0 W/m 10,5 km/h (2 Bft) 95,74 %
23.04.2017 00:52 4,6 C 3,9 C 2,2 C 79 % 0 lf 1024,7 hPa 0,0 l/m 0 min 0 min 0 W/m 8,4 km/h (2 Bft) 95,65 %
23.04.2017 00:54 4,6 C 3,9 C 2,2 C 79 % 0 lf 1024,7 hPa 0,0 l/m 0 min 0 min 0 W/m 8,4 km/h (2 Bft) 95,74 %
23.04.2017 00:56 4,6 C 3,9 C 2,2 C 80 % 0 lf 1024,7 hPa 0,0 l/m 0 min 0 min 0 W/m 8,4 km/h (2 Bft) 97,87 %
23.04.2017 00:58 4,6 C 3,9 C 2,2 C 80 % 0 lf 1024,7 hPa 0,0 l/m 0 min 0 min 0 W/m 6,3 km/h (2 Bft) 100,00 %
23.04.2017 01:00 4,5 C 3,9 C 2,2 C 80 % 0 lf 1024,7 hPa 0,0 l/m 0 min 0 min 0 W/m 6,3 km/h (2 Bft) 95,74 %
23.04.2017 01:02 4,5 C 3,9 C 1,7 C 80 % 0 lf 1024,7 hPa 0,0 l/m 0 min 0 min 0 W/m 10,5 km/h (2 Bft) 100,00 %
23.04.2017 01:04 4,4 C 3,9 C 1,7 C 80 % 0 lf 1024,7 hPa 0,0 l/m 0 min 0 min 0 W/m 8,4 km/h (2 Bft) 100,00 %
23.04.2017 01:06 4,4 C 3,3 C 1,7 C 80 % 0 lf 1024,7 hPa 0,0 l/m 0 min 0 min 0 W/m 6,3 km/h (2 Bft) 100,00 %
23.04.2017 01:08 4,4 C 3,3 C 1,7 C 80 % 0 lf 1024,7 hPa 0,0 l/m 0 min 0 min 0 W/m 6,3 km/h (2 Bft) 100,00 %
23.04.2017 01:10 4,4 C 3,3 C 1,7 C 80 % 0 lf 1024,8 hPa 0,0 l/m 0 min 0 min 4 W/m 8,4 km/h (2 Bft) 100,00 %
23.04.2017 01:12 4,4 C 3,3 C 1,7 C 80 % 0 lf 1024,8 hPa 0,0 l/m 0 min 0 min 2 W/m 10,5 km/h (2 Bft) 97,87 %
23.04.2017 01:14 4,3 C 3,3 C 1,7 C 80 % 0 lf 1024,7 hPa 0,0 l/m 0 min 0 min 0 W/m 8,4 km/h (2 Bft) 100,00 %
23.04.2017 01:16 4,3 C 3,3 C 1,7 C 80 % 0 lf 1024,7 hPa 0,0 l/m 0 min 0 min 0 W/m 8,4 km/h (2 Bft) 100,00 %
23.04.2017 01:18 4,3 C 3,3 C 1,7 C 80 % 0 lf 1024,7 hPa 0,0 l/m 0 min 0 min 0 W/m 8,4 km/h (2 Bft) 100,00 %
23.04.2017 01:20 4,3 C 3,3 C 1,7 C 80 % 0 lf 1024,7 hPa 0,0 l/m 0 min 0 min 0 W/m 6,3 km/h (2 Bft) 100,00 %
23.04.2017 01:22 4,2 C 3,3 C 1,7 C 80 % 0 lf 1024,7 hPa 0,0 l/m 0 min 0 min 4 W/m 6,3 km/h (2 Bft) 100,00 %
23.04.2017 01:24 4,2 C 2,8 C 1,1 C 80 % 0 lf 1024,7 hPa 0,0 l/m 0 min 0 min 0 W/m 6,3 km/h (2 Bft) 97,87 %
23.04.2017 01:26 4,2 C 2,8 C 1,1 C 80 % 0 lf 1024,8 hPa 0,0 l/m 0 min 0 min 0 W/m 6,3 km/h (2 Bft) 100,00 %
23.04.2017 01:28 4,2 C 2,8 C 1,1 C 81 % 0 lf 1024,8 hPa 0,0 l/m 0 min 0 min 3 W/m 8,4 km/h (2 Bft) 95,74 %
23.04.2017 01:30 4,2 C 2,8 C 1,1 C 81 % 0 lf 1024,8 hPa 0,0 l/m 0 min 0 min 0 W/m 4,2 km/h (1 Bft) 97,87 %
23.04.2017 01:32 4,1 C 2,8 C 1,1 C 81 % 0 lf 1024,7 hPa 0,0 l/m 0 min 0 min 0 W/m 6,3 km/h (2 Bft) 97,87 %
23.04.2017 01:34 4,1 C 2,8 C 1,1 C 81 % 0 lf 1024,7 hPa 0,0 l/m 0 min 0 min 0 W/m 6,3 km/h (2 Bft) 100,00 %
23.04.2017 01:36 4,1 C 2,8 C 1,1 C 81 % 0 lf 1024,7 hPa 0,0 l/m 0 min 0 min 0 W/m 6,3 km/h (2 Bft) 97,87 %
23.04.2017 01:38 4,0 C 2,8 C 1,1 C 81 % 0 lf 1024,7 hPa 0,0 l/m 0 min 0 min 4 W/m 8,4 km/h (2 Bft) 100,00 %
23.04.2017 01:40 4,0 C 2,8 C 1,1 C 81 % 0 lf 1024,7 hPa 0,0 l/m 0 min 0 min 0 W/m 6,3 km/h (2 Bft) 100,00 %
23.04.2017 01:42 3,9 C 2,8 C 1,1 C 81 % 0 lf 1024,8 hPa 0,0 l/m 0 min 0 min 0 W/m 8,4 km/h (2 Bft) 97,87 %
23.04.2017 01:44 3,9 C 2,8 C 1,1 C 81 % 0 lf 1024,8 hPa 0,0 l/m 0 min 0 min 0 W/m 8,4 km/h (2 Bft) 100,00 %
23.04.2017 01:46 3,9 C 2,8 C 1,1 C 81 % 0 lf 1024,8 hPa 0,0 l/m 0 min 0 min 0 W/m 8,4 km/h (2 Bft) 97,87 %
23.04.2017 01:48 3,9 C 2,8 C 1,1 C 81 % 0 lf 1024,7 hPa 0,0 l/m 0 min 0 min 1 W/m 8,4 km/h (2 Bft) 100,00 %
23.04.2017 01:50 3,8 C 2,8 C 1,1 C 81 % 0 lf 1024,7 hPa 0,0 l/m 0 min 0 min 5 W/m 8,4 km/h (2 Bft) 97,83 %
23.04.2017 01:52 3,8 C 2,8 C 1,1 C 81 % 0 lf 1024,7 hPa 0,0 l/m 0 min 0 min 5 W/m 10,5 km/h (2 Bft) 100,00 %
23.04.2017 01:54 3,8 C 2,8 C 1,1 C 81 % 0 lf 1024,7 hPa 0,0 l/m 0 min 0 min 5 W/m 10,5 km/h (2 Bft) 100,00 %
23.04.2017 01:56 3,8 C 2,8 C 1,1 C 82 % 0 lf 1024,7 hPa 0,0 l/m 0 min 0 min 3 W/m 14,6 km/h (3 Bft) 97,87 %
23.04.2017 01:58 3,7 C 2,8 C 1,1 C 82 % 0 lf 1024,7 hPa 0,0 l/m 0 min 0 min 3 W/m 10,5 km/h (2 Bft) 97,87 %
23.04.2017 02:00 3,7 C 2,8 C 1,1 C 82 % 0 lf 1024,7 hPa 0,0 l/m 0 min 0 min 5 W/m 14,6 km/h (3 Bft) 93,62 %
23.04.2017 02:02 3,7 C 2,8 C 1,1 C 82 % 0 lf 1024,7 hPa 0,0 l/m 0 min 0 min 5 W/m 10,5 km/h (2 Bft) 95,65 %
23.04.2017 02:04 3,7 C 2,8 C 1,1 C 83 % 0 lf 1024,7 hPa 0,0 l/m 0 min 0 min 5 W/m 14,6 km/h (3 Bft) 97,87 %
23.04.2017 02:06 3,6 C 2,8 C 1,1 C 83 % 0 lf 1024,7 hPa 0,0 l/m 0 min 0 min 5 W/m 8,4 km/h (2 Bft) 95,74 %
23.04.2017 02:08 3,6 C 2,8 C 1,1 C 83 % 0 lf 1024,7 hPa 0,0 l/m 0 min 0 min 5 W/m 8,4 km/h (2 Bft) 95,74 %
23.04.2017 02:10 3,6 C 2,8 C 1,1 C 83 % 0 lf 1024,7 hPa 0,0 l/m 0 min 0 min 5 W/m 10,5 km/h (2 Bft) 97,87 %
23.04.2017 02:12 3,6 C 2,8 C 1,1 C 83 % 0 lf 1024,7 hPa 0,0 l/m 0 min 0 min 5 W/m 12,6 km/h (3 Bft) 97,87 %
23.04.2017 02:14 3,5 C 2,8 C 1,1 C 84 % 0 lf 1024,6 hPa 0,0 l/m 0 min 0 min 5 W/m 8,4 km/h (2 Bft) 95,65 %
23.04.2017 02:16 3,5 C 2,8 C 1,1 C 84 % 0 lf 1024,6 hPa 0,0 l/m 0 min 0 min 5 W/m 8,4 km/h (2 Bft) 95,74 %
23.04.2017 02:18 3,5 C 2,8 C 1,1 C 84 % 0 lf 1024,6 hPa 0,0 l/m 0 min 0 min 5 W/m 8,4 km/h (2 Bft) 93,62 %
23.04.2017 02:20 3,4 C 2,8 C 1,1 C 84 % 0 lf 1024,6 hPa 0,0 l/m 0 min 0 min 5 W/m 10,5 km/h (2 Bft) 95,74 %
23.04.2017 02:22 3,4 C 2,2 C 0,6 C 84 % 0 lf 1024,6 hPa 0,0 l/m 0 min 0 min 5 W/m 8,4 km/h (2 Bft) 95,74 %
23.04.2017 02:24 3,4 C 2,2 C 0,6 C 84 % 0 lf 1024,6 hPa 0,0 l/m 0 min 0 min 5 W/m 8,4 km/h (2 Bft) 95,74 %
23.04.2017 02:26 3,4 C 2,2 C 0,6 C 84 % 0 lf 1024,6 hPa 0,0 l/m 0 min 0 min 5 W/m 6,3 km/h (2 Bft) 95,65 %
23.04.2017 02:28 3,4 C 2,2 C 0,6 C 84 % 0 lf 1024,6 hPa 0,0 l/m 0 min 0 min 5 W/m 6,3 km/h (2 Bft) 95,74 %
23.04.2017 02:30 3,3 C 2,2 C 0,6 C 84 % 0 lf 1024,6 hPa 0,0 l/m 0 min 0 min 5 W/m 6,3 km/h (2 Bft) 95,74 %
23.04.2017 02:32 3,3 C 2,2 C 0,6 C 84 % 0 lf 1024,6 hPa 0,0 l/m 0 min 0 min 5 W/m 8,4 km/h (2 Bft) 95,74 %
23.04.2017 02:34 3,3 C 2,2 C 0,6 C 84 % 0 lf 1024,6 hPa 0,0 l/m 0 min 0 min 5 W/m 4,2 km/h (1 Bft) 95,74 %
23.04.2017 02:36 3,3 C 2,2 C 0,6 C 84 % 0 lf 1024,6 hPa 0,0 l/m 0 min 0 min 5 W/m 4,2 km/h (1 Bft) 95,65 %
23.04.2017 02:38 3,3 C 1,7 C 0,6 C 84 % 0 lf 1024,6 hPa 0,0 l/m 0 min 0 min 5 W/m 6,3 km/h (2 Bft) 97,87 %
23.04.2017 02:40 3,2 C 1,7 C 0,6 C 84 % 0 lf 1024,6 hPa 0,0 l/m 0 min 0 min 5 W/m 4,2 km/h (1 Bft) 95,74 %
23.04.2017 02:42 3,2 C 1,7 C 0,6 C 84 % 0 lf 1024,5 hPa 0,0 l/m 0 min 0 min 5 W/m 4,2 km/h (1 Bft) 95,74 %
23.04.2017 02:44 3,2 C 1,7 C 0,6 C 84 % 0 lf 1024,5 hPa 0,0 l/m 0 min 0 min 5 W/m 6,3 km/h (2 Bft) 97,87 %
23.04.2017 02:46 3,1 C 1,7 C 0,6 C 84 % 0 lf 1024,5 hPa 0,0 l/m 0 min 0 min 0 W/m 4,2 km/h (1 Bft) 97,87 %
23.04.2017 02:48 3,1 C 1,7 C 0,6 C 84 % 0 lf 1024,5 hPa 0,0 l/m 0 min 0 min 0 W/m 6,3 km/h (2 Bft) 97,87 %
23.04.2017 02:50 3,1 C 1,7 C 0,0 C 84 % 0 lf 1024,4 hPa 0,0 l/m 0 min 0 min 0 W/m 6,3 km/h (2 Bft) 97,83 %
23.04.2017 02:52 3,1 C 1,7 C 0,0 C 84 % 0 lf 1024,4 hPa 0,0 l/m 0 min 0 min 0 W/m 6,3 km/h (2 Bft) 91,49 %
23.04.2017 02:54 3,0 C 1,7 C 0,0 C 84 % 0 lf 1024,5 hPa 0,0 l/m 0 min 0 min 0 W/m 4,2 km/h (1 Bft) 97,87 %
23.04.2017 02:56 2,9 C 1,7 C 0,0 C 84 % 0 lf 1024,4 hPa 0,0 l/m 0 min 0 min 0 W/m 6,3 km/h (2 Bft) 97,87 %
23.04.2017 02:58 2,9 C 1,7 C 0,0 C 84 % 0 lf 1024,4 hPa 0,0 l/m 0 min 0 min 0 W/m 2,1 km/h (1 Bft) 97,87 %
23.04.2017 03:00 2,9 C 1,7 C 0,0 C 84 % 0 lf 1024,5 hPa 0,0 l/m 0 min 0 min 0 W/m 4,2 km/h (1 Bft) 97,83 %
23.04.2017 03:02 2,9 C 1,7 C 0,0 C 84 % 0 lf 1024,4 hPa 0,0 l/m 0 min 0 min 0 W/m 6,3 km/h (2 Bft) 97,87 %
23.04.2017 03:04 2,8 C 1,7 C 0,0 C 84 % 0 lf 1024,4 hPa 0,0 l/m 0 min 0 min 0 W/m 6,3 km/h (2 Bft) 97,87 %
23.04.2017 03:06 2,8 C 1,7 C 0,0 C 84 % 0 lf 1024,4 hPa 0,0 l/m 0 min 0 min 0 W/m 6,3 km/h (2 Bft) 93,62 %
23.04.2017 03:08 2,8 C 1,7 C 0,0 C 84 % 0 lf 1024,4 hPa 0,0 l/m 0 min 0 min 0 W/m 6,3 km/h (2 Bft) 97,87 %
23.04.2017 03:10 2,7 C 1,7 C 0,0 C 84 % 0 lf 1024,5 hPa 0,0 l/m 0 min 0 min 0 W/m 4,2 km/h (1 Bft) 97,87 %
23.04.2017 03:12 2,7 C 1,7 C 0,0 C 85 % 0 lf 1024,4 hPa 0,0 l/m 0 min 0 min 0 W/m 6,3 km/h (2 Bft) 97,83 %
23.04.2017 03:14 2,7 C 1,7 C 0,0 C 85 % 0 lf 1024,4 hPa 0,0 l/m 0 min 0 min 5 W/m 6,3 km/h (2 Bft) 95,74 %
23.04.2017 03:16 2,7 C 1,7 C 0,0 C 85 % 0 lf 1024,4 hPa 0,0 l/m 0 min 0 min 5 W/m 8,4 km/h (2 Bft) 97,87 %
23.04.2017 03:18 2,6 C 1,1 C 0,0 C 85 % 0 lf 1024,4 hPa 0,0 l/m 0 min 0 min 0 W/m 6,3 km/h (2 Bft) 97,87 %
23.04.2017 03:20 2,6 C 1,1 C 0,0 C 85 % 0 lf 1024,4 hPa 0,0 l/m 0 min 0 min 0 W/m 4,2 km/h (1 Bft) 95,74 %
23.04.2017 03:22 2,6 C 1,1 C 0,0 C 85 % 0 lf 1024,4 hPa 0,0 l/m 0 min 0 min 0 W/m 4,2 km/h (1 Bft) 95,74 %
23.04.2017 03:24 2,6 C 1,1 C 0,0 C 85 % 0 lf 1024,4 hPa 0,0 l/m 0 min 0 min 0 W/m 6,3 km/h (2 Bft) 93,48 %
23.04.2017 03:26 2,5 C 1,1 C 0,0 C 85 % 0 lf 1024,4 hPa 0,0 l/m 0 min 0 min 0 W/m 6,3 km/h (2 Bft) 93,62 %
23.04.2017 03:28 2,5 C 1,1 C 0,0 C 85 % 0 lf 1024,4 hPa 0,0 l/m 0 min 0 min 0 W/m 6,3 km/h (2 Bft) 95,74 %
23.04.2017 03:30 2,5 C 1,1 C 0,0 C 85 % 0 lf 1024,4 hPa 0,0 l/m 0 min 0 min 0 W/m 6,3 km/h (2 Bft) 93,62 %
23.04.2017 03:32 2,4 C 1,7 C 0,0 C 85 % 0 lf 1024,3 hPa 0,0 l/m 0 min 0 min 0 W/m 8,4 km/h (2 Bft) 95,74 %
23.04.2017 03:34 2,4 C 1,7 C 0,0 C 85 % 0 lf 1024,4 hPa 0,0 l/m 0 min 0 min 5 W/m 6,3 km/h (2 Bft) 95,74 %
23.04.2017 03:36 2,4 C 1,7 C 0,0 C 85 % 0 lf 1024,4 hPa 0,0 l/m 0 min 0 min 5 W/m 4,2 km/h (1 Bft) 93,48 %
23.04.2017 03:38 2,4 C 1,7 C 0,0 C 85 % 0 lf 1024,4 hPa 0,0 l/m 0 min 0 min 5 W/m 6,3 km/h (2 Bft) 93,62 %
23.04.2017 03:40 2,4 C 1,7 C 0,0 C 86 % 0 lf 1024,4 hPa 0,0 l/m 0 min 0 min 5 W/m 6,3 km/h (2 Bft) 95,74 %
23.04.2017 03:42 2,3 C 1,7 C 0,0 C 86 % 0 lf 1024,4 hPa 0,0 l/m 0 min 0 min 5 W/m 6,3 km/h (2 Bft) 89,36 %
23.04.2017 03:44 2,3 C 1,7 C 0,0 C 86 % 0 lf 1024,4 hPa 0,0 l/m 0 min 0 min 5 W/m 6,3 km/h (2 Bft) 95,74 %
23.04.2017 03:46 2,3 C 1,7 C 0,6 C 86 % 0 lf 1024,3 hPa 0,0 l/m 0 min 0 min 5 W/m 6,3 km/h (2 Bft) 93,62 %
23.04.2017 03:48 2,3 C 1,7 C 0,6 C 86 % 0 lf 1024,4 hPa 0,0 l/m 0 min 0 min 5 W/m 6,3 km/h (2 Bft) 95,65 %
23.04.2017 03:50 2,3 C 1,7 C 0,6 C 86 % 0 lf 1024,3 hPa 0,0 l/m 0 min 0 min 5 W/m 6,3 km/h (2 Bft) 93,62 %
23.04.2017 03:52 2,3 C 2,2 C 0,6 C 86 % 0 lf 1024,3 hPa 0,0 l/m 0 min 0 min 5 W/m 6,3 km/h (2 Bft) 93,62 %
23.04.2017 03:54 2,3 C 2,2 C 0,6 C 87 % 0 lf 1024,4 hPa 0,0 l/m 0 min 0 min 5 W/m 6,3 km/h (2 Bft) 95,74 %
23.04.2017 03:56 2,2 C 2,2 C 1,1 C 87 % 0 lf 1024,3 hPa 0,0 l/m 0 min 0 min 0 W/m 4,2 km/h (1 Bft) 95,74 %
23.04.2017 03:58 2,2 C 2,2 C 1,1 C 87 % 0 lf 1024,4 hPa 0,0 l/m 0 min 0 min 5 W/m 6,3 km/h (2 Bft) 91,30 %
23.04.2017 04:00 2,2 C 2,2 C 1,1 C 87 % 0 lf 1024,4 hPa 0,0 l/m 0 min 0 min 5 W/m 6,3 km/h (2 Bft) 91,49 %
23.04.2017 04:02 2,3 C 2,2 C 1,1 C 87 % 0 lf 1024,4 hPa 0,0 l/m 0 min 0 min 0 W/m 6,3 km/h (2 Bft) 88,24 %
23.04.2017 04:04 2,3 C 2,2 C 1,1 C 88 % 0 lf 1024,4 hPa 0,0 l/m 0 min 0 min 0 W/m 6,3 km/h (2 Bft) 93,62 %
23.04.2017 04:06 2,3 C 2,2 C 1,1 C 88 % 0 lf 1024,4 hPa 0,0 l/m 0 min 0 min 0 W/m 4,2 km/h (1 Bft) 93,62 %
23.04.2017 04:08 2,3 C 2,2 C 1,1 C 88 % 0 lf 1024,4 hPa 0,0 l/m 0 min 0 min 0 W/m 4,2 km/h (1 Bft) 95,74 %
23.04.2017 04:10 2,3 C 2,2 C 1,1 C 88 % 0 lf 1024,3 hPa 0,0 l/m 0 min 0 min 0 W/m 6,3 km/h (2 Bft) 93,75 %
23.04.2017 04:12 2,3 C 2,2 C 1,1 C 88 % 0 lf 1024,3 hPa 0,0 l/m 0 min 0 min 0 W/m 4,2 km/h (1 Bft) 95,74 %
23.04.2017 04:14 2,3 C 2,8 C 1,1 C 88 % 0 lf 1024,3 hPa 0,0 l/m 0 min 0 min 5 W/m 4,2 km/h (1 Bft) 97,83 %
23.04.2017 04:16 2,3 C 2,8 C 1,1 C 88 % 0 lf 1024,3 hPa 0,0 l/m 0 min 0 min 5 W/m 8,4 km/h (2 Bft) 97,87 %
23.04.2017 04:18 2,3 C 2,8 C 1,1 C 88 % 0 lf 1024,3 hPa 0,0 l/m 0 min 0 min 5 W/m 6,3 km/h (2 Bft) 97,87 %
23.04.2017 04:20 2,3 C 2,8 C 1,7 C 88 % 0 lf 1024,3 hPa 0,0 l/m 0 min 0 min 5 W/m 6,3 km/h (2 Bft) 94,92 %
23.04.2017 04:22 2,4 C 2,8 C 1,7 C 89 % 0 lf 1024,2 hPa 0,0 l/m 0 min 0 min 0 W/m 6,3 km/h (2 Bft) 100,00 %
23.04.2017 04:24 2,3 C 2,8 C 1,7 C 89 % 0 lf 1024,2 hPa 0,0 l/m 0 min 0 min 0 W/m 6,3 km/h (2 Bft) 95,65 %
23.04.2017 04:26 2,4 C 2,8 C 1,7 C 89 % 0 lf 1024,2 hPa 0,0 l/m 0 min 0 min 0 W/m 6,3 km/h (2 Bft) 93,62 %
23.04.2017 04:28 2,4 C 2,8 C 1,7 C 89 % 0 lf 1024,2 hPa 0,0 l/m 0 min 0 min 0 W/m 8,4 km/h (2 Bft) 95,74 %
23.04.2017 04:30 2,4 C 2,8 C 1,7 C 89 % 0 lf 1024,1 hPa 0,0 l/m 0 min 0 min 0 W/m 6,3 km/h (2 Bft) 95,74 %
23.04.2017 04:32 2,5 C 2,8 C 1,7 C 89 % 0 lf 1024,1 hPa 0,0 l/m 0 min 0 min 0 W/m 10,5 km/h (2 Bft) 97,87 %
23.04.2017 04:34 2,5 C 2,8 C 1,7 C 89 % 0 lf 1024,2 hPa 0,0 l/m 0 min 0 min 0 W/m 6,3 km/h (2 Bft) 93,62 %
23.04.2017 04:36 2,6 C 2,8 C 1,7 C 89 % 0 lf 1024,2 hPa 0,0 l/m 0 min 0 min 0 W/m 8,4 km/h (2 Bft) 93,48 %
23.04.2017 04:38 2,6 C 2,8 C 1,7 C 90 % 0 lf 1024,3 hPa 0,0 l/m 0 min 0 min 0 W/m 8,4 km/h (2 Bft) 93,62 %
23.04.2017 04:40 2,6 C 2,8 C 1,7 C 90 % 0 lf 1024,3 hPa 0,0 l/m 0 min 0 min 0 W/m 6,3 km/h (2 Bft) 97,87 %
23.04.2017 04:42 2,6 C 2,8 C 1,7 C 90 % 0 lf 1024,2 hPa 0,0 l/m 0 min 0 min 0 W/m 6,3 km/h (2 Bft) 97,87 %
23.04.2017 04:44 2,7 C 2,8 C 1,7 C 90 % 0 lf 1024,2 hPa 0,0 l/m 0 min 0 min 0 W/m 6,3 km/h (2 Bft) 97,87 %
23.04.2017 04:46 2,7 C 2,8 C 1,7 C 90 % 0 lf 1024,2 hPa 0,0 l/m 0 min 0 min 0 W/m 4,2 km/h (1 Bft) 95,74 %
23.04.2017 04:48 2,7 C 2,8 C 1,7 C 90 % 0 lf 1024,2 hPa 0,0 l/m 0 min 0 min 0 W/m 4,2 km/h (1 Bft) 95,65 %
23.04.2017 04:50 2,7 C 2,8 C 2,2 C 90 % 0 lf 1024,2 hPa 0,0 l/m 0 min 0 min 0 W/m 8,4 km/h (2 Bft) 94,92 %
23.04.2017 04:52 2,7 C 2,8 C 2,2 C 90 % 0 lf 1024,2 hPa 0,0 l/m 0 min 0 min 0 W/m 6,3 km/h (2 Bft) 94,29 %
23.04.2017 04:54 2,7 C 2,8 C 2,2 C 90 % 0 lf 1024,2 hPa 0,0 l/m 0 min 0 min 0 W/m 2,1 km/h (1 Bft) 97,87 %
23.04.2017 04:56 2,7 C 2,8 C 2,2 C 90 % 0 lf 1024,2 hPa 0,0 l/m 0 min 0 min 0 W/m 4,2 km/h (1 Bft) 95,74 %
23.04.2017 04:58 2,7 C 3,3 C 2,2 C 90 % 0 lf 1024,2 hPa 0,0 l/m 0 min 0 min 0 W/m 6,3 km/h (2 Bft) 97,87 %
23.04.2017 05:00 2,7 C 3,3 C 2,2 C 90 % 0 lf 1024,3 hPa 0,0 l/m 0 min 0 min 0 W/m 4,2 km/h (1 Bft) 95,65 %
23.04.2017 05:02 2,8 C 3,3 C 2,2 C 90 % 0 lf 1024,2 hPa 0,0 l/m 0 min 0 min 0 W/m 6,3 km/h (2 Bft) 100,00 %
23.04.2017 05:04 2,8 C 3,3 C 2,2 C 90 % 0 lf 1024,2 hPa 0,0 l/m 0 min 0 min 0 W/m 6,3 km/h (2 Bft) 97,87 %
23.04.2017 05:06 2,8 C 3,3 C 1,7 C 90 % 0 lf 1024,3 hPa 0,0 l/m 0 min 0 min 0 W/m 8,4 km/h (2 Bft) 100,00 %
23.04.2017 05:08 2,8 C 2,8 C 1,7 C 90 % 0 lf 1024,3 hPa 0,0 l/m 0 min 0 min 0 W/m 4,2 km/h (1 Bft) 97,87 %
23.04.2017 05:10 2,8 C 2,8 C 1,7 C 90 % 0 lf 1024,3 hPa 0,0 l/m 0 min 0 min 0 W/m 6,3 km/h (2 Bft) 100,00 %
23.04.2017 05:12 2,8 C 2,8 C 1,7 C 91 % 0 lf 1024,3 hPa 0,0 l/m 0 min 0 min 0 W/m 6,3 km/h (2 Bft) 100,00 %
23.04.2017 05:14 2,8 C 2,8 C 1,1 C 91 % 0 lf 1024,3 hPa 0,0 l/m 0 min 0 min 0 W/m 4,2 km/h (1 Bft) 97,87 %
23.04.2017 05:16 2,8 C 2,8 C 1,1 C 91 % 0 lf 1024,3 hPa 0,0 l/m 0 min 0 min 0 W/m 8,4 km/h (2 Bft) 100,00 %
23.04.2017 05:18 2,8 C 2,8 C 1,1 C 91 % 0 lf 1024,3 hPa 0,0 l/m 0 min 0 min 5 W/m 4,2 km/h (1 Bft) 95,74 %
23.04.2017 05:20 2,8 C 2,2 C 1,1 C 91 % 0 lf 1024,3 hPa 0,0 l/m 0 min 0 min 5 W/m 6,3 km/h (2 Bft) 100,00 %
23.04.2017 05:22 2,9 C 2,2 C 0,6 C 91 % 0 lf 1024,3 hPa 0,0 l/m 0 min 0 min 5 W/m 6,3 km/h (2 Bft) 100,00 %
23.04.2017 05:24 2,8 C 2,2 C 0,6 C 91 % 0 lf 1024,3 hPa 0,0 l/m 0 min 0 min 5 W/m 6,3 km/h (2 Bft) 100,00 %
23.04.2017 05:26 2,8 C 2,2 C 0,6 C 91 % 0 lf 1024,3 hPa 0,0 l/m 0 min 0 min 5 W/m 6,3 km/h (2 Bft) 100,00 %
23.04.2017 05:28 2,8 C 2,2 C 0,6 C 90 % 0 lf 1024,3 hPa 0,0 l/m 0 min 0 min 5 W/m 6,3 km/h (2 Bft) 100,00 %
23.04.2017 05:30 2,8 C 2,2 C 0,6 C 90 % 0 lf 1024,3 hPa 0,0 l/m 0 min 0 min 5 W/m 6,3 km/h (2 Bft) 100,00 %
23.04.2017 05:32 2,8 C 2,2 C 0,6 C 90 % 0 lf 1024,3 hPa 0,0 l/m 0 min 0 min 5 W/m 4,2 km/h (1 Bft) 100,00 %
23.04.2017 05:34 2,8 C 2,2 C 0,6 C 90 % 0 lf 1024,3 hPa 0,0 l/m 0 min 0 min 5 W/m 6,3 km/h (2 Bft) 97,83 %
23.04.2017 05:36 2,8 C 2,2 C 0,6 C 90 % 0 lf 1024,2 hPa 0,0 l/m 0 min 0 min 5 W/m 6,3 km/h (2 Bft) 100,00 %
23.04.2017 05:38 2,7 C 2,2 C 0,6 C 90 % 0 lf 1024,3 hPa 0,0 l/m 0 min 0 min 5 W/m 2,1 km/h (1 Bft) 97,87 %
23.04.2017 05:40 2,7 C 2,2 C 1,1 C 90 % 0 lf 1024,3 hPa 0,0 l/m 0 min 0 min 5 W/m 8,4 km/h (2 Bft) 97,87 %
23.04.2017 05:42 2,7 C 2,2 C 1,1 C 90 % 0 lf 1024,2 hPa 0,0 l/m 0 min 0 min 5 W/m 6,3 km/h (2 Bft) 100,00 %
23.04.2017 05:44 2,7 C 2,2 C 1,1 C 90 % 0 lf 1024,3 hPa 0,0 l/m 0 min 0 min 5 W/m 10,5 km/h (2 Bft) 97,83 %
23.04.2017 05:46 2,7 C 2,2 C 1,1 C 90 % 0 lf 1024,3 hPa 0,0 l/m 0 min 0 min 5 W/m 8,4 km/h (2 Bft) 97,87 %
23.04.2017 05:48 2,7 C 2,2 C 1,1 C 90 % 0 lf 1024,3 hPa 0,0 l/m 0 min 0 min 5 W/m 6,3 km/h (2 Bft) 95,74 %
23.04.2017 05:50 2,7 C 2,2 C 1,7 C 90 % 0 lf 1024,3 hPa 0,0 l/m 0 min 0 min 5 W/m 6,3 km/h (2 Bft) 100,00 %
23.04.2017 05:52 2,7 C 2,8 C 1,7 C 90 % 0 lf 1024,3 hPa 0,0 l/m 0 min 0 min 5 W/m 6,3 km/h (2 Bft) 97,87 %
23.04.2017 05:54 2,7 C 2,8 C 1,7 C 90 % 0 lf 1024,3 hPa 0,0 l/m 0 min 0 min 5 W/m 4,2 km/h (1 Bft) 97,87 %
23.04.2017 05:56 2,7 C 2,8 C 1,7 C 90 % 0 lf 1024,3 hPa 0,0 l/m 0 min 0 min 5 W/m 8,4 km/h (2 Bft) 98,00 %
23.04.2017 05:58 2,7 C 2,8 C 1,7 C 90 % 0 lf 1024,3 hPa 0,0 l/m 0 min 0 min 5 W/m 6,3 km/h (2 Bft) 97,96 %
23.04.2017 06:00 2,7 C 2,8 C 1,7 C 90 % 0 lf 1024,3 hPa 0,0 l/m 0 min 0 min 5 W/m 6,3 km/h (2 Bft) 93,62 %
23.04.2017 06:02 2,7 C 2,8 C 1,7 C 90 % 0 lf 1024,3 hPa 0,0 l/m 0 min 0 min 5 W/m 6,3 km/h (2 Bft) 97,87 %
23.04.2017 06:04 2,7 C 2,8 C 1,7 C 90 % 0 lf 1024,3 hPa 0,0 l/m 0 min 0 min 5 W/m 6,3 km/h (2 Bft) 97,87 %
23.04.2017 06:06 2,7 C 2,8 C 1,7 C 90 % 0 lf 1024,3 hPa 0,0 l/m 0 min 0 min 5 W/m 10,5 km/h (2 Bft) 97,83 %
23.04.2017 06:08 2,7 C 2,8 C 1,7 C 91 % 0 lf 1024,3 hPa 0,0 l/m 0 min 0 min 6 W/m 10,5 km/h (2 Bft) 97,87 %
23.04.2017 06:10 2,7 C 3,3 C 1,7 C 91 % 0 lf 1024,3 hPa 0,0 l/m 0 min 0 min 7 W/m 8,4 km/h (2 Bft) 95,74 %
23.04.2017 06:12 2,7 C 3,3 C 2,2 C 91 % 0 lf 1024,3 hPa 0,0 l/m 0 min 0 min 7 W/m 8,4 km/h (2 Bft) 97,87 %
23.04.2017 06:14 2,8 C 3,3 C 2,2 C 91 % 0 lf 1024,3 hPa 0,0 l/m 0 min 0 min 7 W/m 12,6 km/h (3 Bft) 97,87 %
23.04.2017 06:16 2,8 C 3,3 C 2,2 C 91 % 0 lf 1024,3 hPa 0,0 l/m 0 min 0 min 7 W/m 8,4 km/h (2 Bft) 100,00 %
23.04.2017 06:18 2,8 C 3,3 C 2,2 C 91 % 0 lf 1024,4 hPa 0,0 l/m 0 min 0 min 7 W/m 10,5 km/h (2 Bft) 100,00 %
23.04.2017 06:20 2,8 C 3,3 C 2,2 C 91 % 0 lf 1024,3 hPa 0,0 l/m 0 min 0 min 7 W/m 12,6 km/h (3 Bft) 100,00 %
23.04.2017 06:22 2,9 C 3,3 C 2,2 C 91 % 0 lf 1024,3 hPa 0,0 l/m 0 min 0 min 8 W/m 10,5 km/h (2 Bft) 95,74 %
23.04.2017 06:24 2,9 C 3,3 C 2,2 C 91 % 0 lf 1024,3 hPa 0,0 l/m 0 min 0 min 9 W/m 16,7 km/h (3 Bft) 100,00 %
23.04.2017 06:26 2,9 C 3,3 C 2,2 C 91 % 0 lf 1024,3 hPa 0,0 l/m 0 min 0 min 9 W/m 14,6 km/h (3 Bft) 100,00 %
23.04.2017 06:28 2,9 C 3,3 C 2,2 C 91 % 0 lf 1024,3 hPa 0,0 l/m 0 min 0 min 11 W/m 10,5 km/h (2 Bft) 97,87 %
23.04.2017 06:30 3,0 C 3,3 C 2,2 C 91 % 0 lf 1024,3 hPa 0,0 l/m 0 min 0 min 11 W/m 10,5 km/h (2 Bft) 97,83 %
23.04.2017 06:32 3,1 C 3,3 C 2,2 C 91 % 0 lf 1024,3 hPa 0,0 l/m 0 min 0 min 11 W/m 14,6 km/h (3 Bft) 93,62 %
23.04.2017 06:34 3,1 C 3,3 C 2,2 C 91 % 0 lf 1024,4 hPa 0,0 l/m 0 min 0 min 12 W/m 10,5 km/h (2 Bft) 95,74 %
23.04.2017 06:36 3,1 C 3,3 C 2,2 C 91 % 0 lf 1024,4 hPa 0,0 l/m 0 min 0 min 12 W/m 10,5 km/h (2 Bft) 95,12 %
23.04.2017 06:38 3,1 C 3,9 C 2,2 C 91 % 0 lf 1024,4 hPa 0,0 l/m 0 min 0 min 14 W/m 8,4 km/h (2 Bft) 96,00 %
23.04.2017 06:40 3,1 C 3,9 C 2,2 C 91 % 0 lf 1024,3 hPa 0,0 l/m 0 min 0 min 16 W/m 12,6 km/h (3 Bft) 95,74 %
23.04.2017 06:42 3,1 C 3,9 C 2,2 C 91 % 0 lf 1024,3 hPa 0,0 l/m 0 min 0 min 18 W/m 10,5 km/h (2 Bft) 95,74 %
23.04.2017 06:44 3,2 C 3,9 C 2,2 C 91 % 0 lf 1024,4 hPa 0,0 l/m 0 min 0 min 18 W/m 8,4 km/h (2 Bft) 97,87 %
23.04.2017 06:46 3,2 C 3,9 C 2,2 C 91 % 0 lf 1024,3 hPa 0,0 l/m 0 min 0 min 19 W/m 8,4 km/h (2 Bft) 95,74 %
23.04.2017 06:48 3,2 C 3,9 C 2,8 C 91 % 0 lf 1024,4 hPa 0,0 l/m 0 min 0 min 20 W/m 6,3 km/h (2 Bft) 97,83 %
23.04.2017 06:50 3,2 C 3,9 C 2,8 C 91 % 0 lf 1024,4 hPa 0,0 l/m 0 min 0 min 22 W/m 6,3 km/h (2 Bft) 95,74 %
23.04.2017 06:52 3,2 C 3,9 C 2,8 C 91 % 0 lf 1024,5 hPa 0,0 l/m 0 min 0 min 23 W/m 10,5 km/h (2 Bft) 95,74 %
23.04.2017 06:54 3,2 C 3,9 C 2,8 C 91 % 0 lf 1024,4 hPa 0,0 l/m 0 min 0 min 25 W/m 8,4 km/h (2 Bft) 93,88 %
23.04.2017 06:56 3,2 C 3,9 C 2,8 C 91 % 0 lf 1024,4 hPa 0,0 l/m 0 min 0 min 26 W/m 8,4 km/h (2 Bft) 95,74 %
23.04.2017 06:58 3,3 C 3,9 C 2,8 C 91 % 0 lf 1024,4 hPa 0,0 l/m 0 min 0 min 28 W/m 10,5 km/h (2 Bft) 95,24 %
23.04.2017 07:00 3,3 C 3,9 C 2,8 C 91 % 0 lf 1024,5 hPa 0,0 l/m 0 min 0 min 31 W/m 10,5 km/h (2 Bft) 93,88 %
23.04.2017 07:02 3,3 C 3,9 C 2,8 C 91 % 0 lf 1024,5 hPa 0,0 l/m 0 min 0 min 32 W/m 10,5 km/h (2 Bft) 95,74 %
23.04.2017 07:04 3,3 C 4,4 C 2,8 C 91 % 0 lf 1024,6 hPa 0,0 l/m 0 min 0 min 32 W/m 6,3 km/h (2 Bft) 95,74 %
23.04.2017 07:06 3,4 C 4,4 C 3,3 C 91 % 0 lf 1024,6 hPa 0,0 l/m 0 min 0 min 34 W/m 10,5 km/h (2 Bft) 95,74 %
23.04.2017 07:08 3,4 C 4,4 C 3,3 C 92 % 0 lf 1024,6 hPa 0,0 l/m 0 min 0 min 41 W/m 12,6 km/h (3 Bft) 93,88 %
23.04.2017 07:10 3,4 C 4,4 C 3,3 C 92 % 0 lf 1024,6 hPa 0,0 l/m 0 min 0 min 45 W/m 8,4 km/h (2 Bft) 93,62 %
23.04.2017 07:12 3,5 C 4,4 C 3,3 C 92 % 0 lf 1024,6 hPa 0,0 l/m 0 min 0 min 50 W/m 6,3 km/h (2 Bft) 91,49 %
23.04.2017 07:14 3,5 C 4,4 C 3,3 C 92 % 0 lf 1024,6 hPa 0,0 l/m 0 min 0 min 53 W/m 8,4 km/h (2 Bft) 95,74 %
23.04.2017 07:16 3,5 C 4,4 C 3,3 C 92 % 0 lf 1024,6 hPa 0,0 l/m 0 min 0 min 57 W/m 10,5 km/h (2 Bft) 97,83 %
23.04.2017 07:18 3,6 C 4,4 C 3,3 C 92 % 0 lf 1024,7 hPa 0,0 l/m 0 min 0 min 62 W/m 10,5 km/h (2 Bft) 95,74 %
23.04.2017 07:20 3,6 C 5,0 C 3,3 C 92 % 0 lf 1024,6 hPa 0,0 l/m 0 min 0 min 63 W/m 10,5 km/h (2 Bft) 95,74 %
23.04.2017 07:22 3,6 C 5,0 C 3,3 C 91 % 0 lf 1024,7 hPa 0,0 l/m 0 min 0 min 66 W/m 14,6 km/h (3 Bft) 95,74 %
23.04.2017 07:24 3,6 C 5,0 C 3,3 C 91 % 0 lf 1024,6 hPa 0,0 l/m 0 min 0 min 68 W/m 14,6 km/h (3 Bft) 89,36 %
23.04.2017 07:26 3,7 C 5,0 C 3,3 C 91 % 0 lf 1024,7 hPa 0,0 l/m 0 min 0 min 69 W/m 12,6 km/h (3 Bft) 97,87 %
23.04.2017 07:28 3,7 C 5,0 C 3,3 C 91 % 0 lf 1024,7 hPa 0,0 l/m 0 min 0 min 73 W/m 10,5 km/h (2 Bft) 95,65 %
23.04.2017 07:30 3,7 C 5,0 C 3,9 C 91 % 0 lf 1024,7 hPa 0,0 l/m 2 min 0 min 80 W/m 8,4 km/h (2 Bft) 95,24 %
23.04.2017 07:32 3,8 C 5,6 C 3,9 C 92 % 0 lf 1024,8 hPa 0,0 l/m 2 min 0 min 89 W/m 2,1 km/h (1 Bft) 95,74 %
23.04.2017 07:34 3,8 C 5,6 C 3,9 C 92 % 0 lf 1024,7 hPa 0,0 l/m 2 min 0 min 92 W/m 6,3 km/h (2 Bft) 95,74 %
23.04.2017 07:36 3,8 C 5,6 C 3,9 C 91 % 0 lf 1024,8 hPa 0,0 l/m 2 min 0 min 99 W/m 6,3 km/h (2 Bft) 95,65 %
23.04.2017 07:38 3,9 C 5,6 C 4,4 C 91 % 0 lf 1024,8 hPa 0,0 l/m 2 min 0 min 103 W/m 8,4 km/h (2 Bft) 93,62 %
23.04.2017 07:40 3,9 C 6,1 C 4,4 C 91 % 0 lf 1024,8 hPa 0,0 l/m 2 min 0 min 105 W/m 6,3 km/h (2 Bft) 95,74 %
23.04.2017 07:42 4,0 C 6,1 C 4,4 C 91 % 0 lf 1024,8 hPa 0,0 l/m 2 min 0 min 111 W/m 8,4 km/h (2 Bft) 91,49 %
23.04.2017 07:44 4,0 C 6,1 C 4,4 C 91 % 0 lf 1024,7 hPa 0,0 l/m 2 min 0 min 123 W/m 8,4 km/h (2 Bft) 95,74 %
23.04.2017 07:46 4,1 C 6,1 C 4,4 C 91 % 0 lf 1024,8 hPa 0,0 l/m 2 min 0 min 131 W/m 10,5 km/h (2 Bft) 95,65 %
23.04.2017 07:48 4,2 C 6,1 C 5,0 C 91 % 0 lf 1024,8 hPa 0,0 l/m 2 min 0 min 136 W/m 6,3 km/h (2 Bft) 93,62 %
23.04.2017 07:50 4,2 C 6,7 C 5,0 C 91 % 0 lf 1024,9 hPa 0,0 l/m 2 min 0 min 139 W/m 10,5 km/h (2 Bft) 97,87 %
23.04.2017 07:52 4,3 C 6,7 C 5,0 C 91 % 0 lf 1024,8 hPa 0,0 l/m 2 min 0 min 148 W/m 12,6 km/h (3 Bft) 96,00 %
23.04.2017 07:54 4,3 C 6,7 C 5,0 C 91 % 0 lf 1024,8 hPa 0,0 l/m 2 min 0 min 152 W/m 10,5 km/h (2 Bft) 95,74 %
23.04.2017 07:56 4,4 C 6,7 C 5,0 C 91 % 0 lf 1024,9 hPa 0,0 l/m 2 min 0 min 178 W/m 12,6 km/h (3 Bft) 95,74 %
23.04.2017 07:58 4,4 C 7,2 C 5,6 C 91 % 0 lf 1024,9 hPa 0,0 l/m 2 min 0 min 161 W/m 10,5 km/h (2 Bft) 95,65 %
23.04.2017 08:00 4,5 C 7,2 C 5,6 C 91 % 0 lf 1024,9 hPa 0,0 l/m 2 min 0 min 167 W/m 12,6 km/h (3 Bft) 95,74 %
23.04.2017 08:02 4,6 C 7,2 C 5,6 C 91 % 0 lf 1024,9 hPa 0,0 l/m 2 min 0 min 191 W/m 18,8 km/h (3 Bft) 95,74 %
23.04.2017 08:04 4,7 C 7,2 C 5,6 C 91 % 0 lf 1024,9 hPa 0,0 l/m 2 min 0 min 294 W/m 14,6 km/h (3 Bft) 97,87 %
23.04.2017 08:06 4,8 C 7,2 C 5,6 C 91 % 0 lf 1024,9 hPa 0,0 l/m 2 min 0 min 256 W/m 14,6 km/h (3 Bft) 97,87 %
23.04.2017 08:08 4,8 C 7,8 C 5,6 C 91 % 0 lf 1024,9 hPa 0,0 l/m 2 min 0 min 244 W/m 10,5 km/h (2 Bft) 93,48 %
23.04.2017 08:10 4,9 C 7,2 C 5,6 C 90 % 0 lf 1025,0 hPa 0,0 l/m 2 min 0 min 316 W/m 18,8 km/h (3 Bft) 95,74 %
23.04.2017 08:12 4,9 C 7,2 C 5,6 C 90 % 0 lf 1025,0 hPa 0,0 l/m 2 min 0 min 333 W/m 18,8 km/h (3 Bft) 97,87 %
23.04.2017 08:14 5,0 C 7,8 C 5,6 C 90 % 0 lf 1025,0 hPa 0,0 l/m 2 min 0 min 325 W/m 16,7 km/h (3 Bft) 95,74 %
23.04.2017 08:16 5,1 C 7,8 C 5,0 C 89 % 0 lf 1025,1 hPa 0,0 l/m 2 min 0 min 301 W/m 12,6 km/h (3 Bft) 97,96 %
23.04.2017 08:18 5,1 C 7,2 C 5,0 C 89 % 0 lf 1025,1 hPa 0,0 l/m 2 min 0 min 263 W/m 14,6 km/h (3 Bft) 97,87 %
23.04.2017 08:20 5,2 C 7,2 C 5,0 C 89 % 0 lf 1025,2 hPa 0,0 l/m 2 min 0 min 287 W/m 18,8 km/h (3 Bft) 97,87 %
23.04.2017 08:22 5,2 C 7,2 C 5,0 C 89 % 0 lf 1025,2 hPa 0,0 l/m 2 min 0 min 299 W/m 16,7 km/h (3 Bft) 97,87 %
23.04.2017 08:24 5,3 C 7,2 C 5,0 C 88 % 0 lf 1025,2 hPa 0,0 l/m 2 min 0 min 313 W/m 14,6 km/h (3 Bft) 95,74 %
23.04.2017 08:26 5,3 C 7,2 C 5,0 C 88 % 0 lf 1025,1 hPa 0,0 l/m 2 min 0 min 258 W/m 14,6 km/h (3 Bft) 97,83 %
23.04.2017 08:28 5,3 C 7,2 C 5,0 C 88 % 0 lf 1025,1 hPa 0,0 l/m 2 min 0 min 250 W/m 20,9 km/h (4 Bft) 93,62 %
23.04.2017 08:30 5,4 C 7,2 C 5,0 C 88 % 0 lf 1025,1 hPa 0,0 l/m 2 min 0 min 315 W/m 12,6 km/h (3 Bft) 97,87 %
23.04.2017 08:32 5,4 C 7,2 C 4,4 C 87 % 0 lf 1025,1 hPa 0,0 l/m 2 min 0 min 334 W/m 20,9 km/h (4 Bft) 97,14 %
23.04.2017 08:34 5,4 C 6,7 C 5,0 C 87 % 0 lf 1025,1 hPa 0,0 l/m 2 min 0 min 338 W/m 20,9 km/h (4 Bft) 97,87 %
23.04.2017 08:36 5,5 C 7,2 C 5,0 C 87 % 0 lf 1025,1 hPa 0,0 l/m 2 min 0 min 338 W/m 18,8 km/h (3 Bft) 97,87 %
23.04.2017 08:38 5,5 C 7,2 C 5,0 C 87 % 0 lf 1025,1 hPa 0,0 l/m 2 min 0 min 344 W/m 18,8 km/h (3 Bft) 95,74 %
23.04.2017 08:40 5,6 C 7,2 C 5,0 C 86 % 0 lf 1025,1 hPa 0,0 l/m 2 min 0 min 355 W/m 10,5 km/h (2 Bft) 95,74 %
23.04.2017 08:42 5,6 C 9,4 C 5,0 C 86 % 0 lf 1025,1 hPa 0,0 l/m 2 min 0 min 361 W/m 14,6 km/h (3 Bft) 100,00 %
23.04.2017 08:44 5,7 C 11,1 C 5,0 C 86 % 0 lf 1025,1 hPa 0,0 l/m 2 min 0 min 368 W/m 10,5 km/h (2 Bft) 100,00 %
23.04.2017 08:46 5,7 C 12,8 C 5,0 C 86 % 0 lf 1025,1 hPa 0,0 l/m 2 min 0 min 375 W/m 16,7 km/h (3 Bft) 100,00 %
23.04.2017 08:48 5,8 C 13,9 C 5,0 C 86 % 0 lf 1025,1 hPa 0,0 l/m 2 min 0 min 366 W/m 18,8 km/h (3 Bft) 97,87 %
23.04.2017 08:50 5,9 C 15,0 C 5,0 C 85 % 0 lf 1025,1 hPa 0,0 l/m 2 min 0 min 390 W/m 10,5 km/h (2 Bft) 100,00 %
23.04.2017 08:52 5,9 C 16,1 C 5,6 C 85 % 0 lf 1025,1 hPa 0,0 l/m 2 min 0 min 366 W/m 12,6 km/h (3 Bft) 100,00 %
23.04.2017 08:54 6,0 C 16,7 C 5,6 C 85 % 0 lf 1025,1 hPa 0,0 l/m 2 min 0 min 398 W/m 14,6 km/h (3 Bft) 100,00 %
23.04.2017 08:56 6,1 C 16,7 C 5,6 C 85 % 0 lf 1025,2 hPa 0,0 l/m 2 min 0 min 413 W/m 14,6 km/h (3 Bft) 98,18 %
23.04.2017 08:58 6,2 C 17,2 C 5,6 C 85 % 0 lf 1025,2 hPa 0,0 l/m 2 min 0 min 413 W/m 14,6 km/h (3 Bft) 97,87 %
23.04.2017 09:00 6,2 C 16,7 C 5,6 C 84 % 0 lf 1025,1 hPa 0,0 l/m 2 min 0 min 386 W/m 12,6 km/h (3 Bft) 100,00 %
23.04.2017 09:02 6,4 C 16,1 C 5,6 C 84 % 0 lf 1025,3 hPa 0,0 l/m 2 min 0 min 379 W/m 16,7 km/h (3 Bft) 97,87 %
23.04.2017 09:04 6,4 C 16,1 C 6,1 C 83 % 0 lf 1025,3 hPa 0,0 l/m 2 min 0 min 390 W/m 14,6 km/h (3 Bft) 95,74 %
23.04.2017 09:06 6,5 C 16,1 C 6,1 C 83 % 0 lf 1025,2 hPa 0,0 l/m 2 min 0 min 405 W/m 16,7 km/h (3 Bft) 100,00 %
23.04.2017 09:08 6,6 C 15,6 C 6,1 C 82 % 0 lf 1025,2 hPa 0,0 l/m 2 min 0 min 428 W/m 20,9 km/h (4 Bft) 97,83 %
23.04.2017 09:10 6,7 C 13,9 C 6,1 C 81 % 0 lf 1025,3 hPa 0,0 l/m 2 min 0 min 352 W/m 16,7 km/h (3 Bft) 100,00 %
23.04.2017 09:12 6,7 C 14,4 C 6,1 C 81 % 0 lf 1025,3 hPa 0,0 l/m 2 min 0 min 292 W/m 16,7 km/h (3 Bft) 100,00 %
23.04.2017 09:14 6,8 C 15,6 C 6,1 C 80 % 0 lf 1025,3 hPa 0,0 l/m 2 min 0 min 461 W/m 20,9 km/h (4 Bft) 100,00 %
23.04.2017 09:16 6,9 C 16,7 C 6,7 C 80 % 0 lf 1025,3 hPa 0,0 l/m 2 min 0 min 483 W/m 12,6 km/h (3 Bft) 100,00 %
23.04.2017 09:18 7,0 C 16,7 C 6,7 C 80 % 0 lf 1025,3 hPa 0,0 l/m 2 min 0 min 485 W/m 18,8 km/h (3 Bft) 97,83 %
23.04.2017 09:20 7,1 C 14,4 C 6,7 C 80 % 0 lf 1025,3 hPa 0,0 l/m 2 min 0 min 225 W/m 23,0 km/h (4 Bft) 97,87 %
23.04.2017 09:22 7,2 C 15,0 C 6,7 C 78 % 0 lf 1025,3 hPa 0,0 l/m 2 min 0 min 406 W/m 20,9 km/h (4 Bft) 93,62 %
23.04.2017 09:24 7,3 C 16,7 C 6,7 C 78 % 0 lf 1025,3 hPa 0,0 l/m 2 min 0 min 494 W/m 14,6 km/h (3 Bft) 100,00 %
23.04.2017 09:26 7,3 C 16,7 C 7,2 C 78 % 0 lf 1025,3 hPa 0,0 l/m 2 min 0 min 493 W/m 14,6 km/h (3 Bft) 97,87 %
23.04.2017 09:28 7,4 C 16,7 C 6,7 C 77 % 0 lf 1025,3 hPa 0,0 l/m 2 min 0 min 457 W/m 18,8 km/h (3 Bft) 97,87 %
23.04.2017 09:30 7,5 C 16,7 C 7,2 C 77 % 0 lf 1025,3 hPa 0,0 l/m 2 min 0 min 497 W/m 25,1 km/h (4 Bft) 93,62 %
23.04.2017 09:32 7,6 C 17,2 C 7,2 C 76 % 0 lf 1025,3 hPa 0,0 l/m 2 min 0 min 541 W/m 16,7 km/h (3 Bft) 97,14 %
23.04.2017 09:34 7,7 C 17,2 C 7,8 C 76 % 0 lf 1025,3 hPa 0,0 l/m 2 min 0 min 538 W/m 16,7 km/h (3 Bft) 93,62 %
23.04.2017 09:36 7,7 C 17,2 C 7,8 C 76 % 0 lf 1025,3 hPa 0,0 l/m 2 min 0 min 539 W/m 18,8 km/h (3 Bft) 95,74 %
23.04.2017 09:38 7,8 C 15,6 C 7,8 C 74 % 0 lf 1025,3 hPa 0,0 l/m 2 min 0 min 529 W/m 23,0 km/h (4 Bft) 93,62 %
23.04.2017 09:40 7,8 C 13,3 C 7,8 C 73 % 0 lf 1025,4 hPa 0,0 l/m 2 min 0 min 366 W/m 20,9 km/h (4 Bft) 95,65 %
23.04.2017 09:42 7,8 C 14,4 C 8,3 C 73 % 0 lf 1025,4 hPa 0,0 l/m 0 min 0 min 223 W/m 16,7 km/h (3 Bft) 93,62 %
23.04.2017 09:44 7,8 C 15,0 C 8,9 C 73 % 0 lf 1025,4 hPa 0,0 l/m 2 min 0 min 557 W/m 18,8 km/h (3 Bft) 93,62 %
23.04.2017 09:46 7,9 C 14,4 C 9,4 C 73 % 0 lf 1025,4 hPa 0,0 l/m 2 min 0 min 694 W/m 20,9 km/h (4 Bft) 93,62 %
23.04.2017 09:48 7,9 C 14,4 C 9,4 C 73 % 0 lf 1025,4 hPa 0,0 l/m 2 min 0 min 710 W/m 29,3 km/h (5 Bft) 93,62 %
23.04.2017 09:50 7,9 C 13,3 C 8,9 C 73 % 0 lf 1025,4 hPa 0,0 l/m 2 min 0 min 390 W/m 16,7 km/h (3 Bft) 91,49 %
23.04.2017 09:52 7,9 C 12,2 C 8,9 C 73 % 0 lf 1025,4 hPa 0,0 l/m 0 min 0 min 215 W/m 27,2 km/h (4 Bft) 92,73 %
23.04.2017 09:54 8,0 C 14,4 C 10,6 C 73 % 0 lf 1025,3 hPa 0,0 l/m 2 min 0 min 368 W/m 14,6 km/h (3 Bft) 91,84 %
23.04.2017 09:56 8,1 C 16,7 C 12,2 C 73 % 0 lf 1025,2 hPa 0,0 l/m 2 min 0 min 660 W/m 12,6 km/h (3 Bft) 93,62 %
23.04.2017 09:58 8,1 C 16,7 C 12,2 C 73 % 0 lf 1025,3 hPa 0,0 l/m 2 min 0 min 683 W/m 18,8 km/h (3 Bft) 91,49 %
23.04.2017 10:00 8,2 C 16,7 C 12,2 C 72 % 0 lf 1025,3 hPa 0,0 l/m 2 min 0 min 397 W/m 18,8 km/h (3 Bft) 93,62 %
23.04.2017 10:02 8,2 C 17,2 C 12,2 C 72 % 0 lf 1025,3 hPa 0,0 l/m 2 min 0 min 431 W/m 18,8 km/h (3 Bft) 87,23 %
23.04.2017 10:04 8,3 C 18,9 C 13,9 C 72 % 0 lf 1025,3 hPa 0,0 l/m 2 min 0 min 696 W/m 12,6 km/h (3 Bft) 87,23 %
23.04.2017 10:06 8,4 C 20,6 C 14,4 C 73 % 0 lf 1025,3 hPa 0,0 l/m 2 min 0 min 658 W/m 12,6 km/h (3 Bft) 93,48 %
23.04.2017 10:08 8,6 C 19,4 C 13,9 C 73 % 0 lf 1025,3 hPa 0,0 l/m 2 min 0 min 684 W/m 23,0 km/h (4 Bft) 91,49 %
23.04.2017 10:10 8,7 C 19,4 C 13,9 C 72 % 0 lf 1025,3 hPa 0,0 l/m 2 min 0 min 461 W/m 10,5 km/h (2 Bft) 97,87 %
23.04.2017 10:14 8,8 C 18,9 C 14,4 C 71 % 0 lf 1025,3 hPa 0,0 l/m 4 min 0 min 644 W/m 16,7 km/h (3 Bft) 96,81 %
23.04.2017 10:16 8,9 C 18,9 C 15,0 C 70 % 0 lf 1025,4 hPa 0,0 l/m 2 min 0 min 635 W/m 23,0 km/h (4 Bft) 97,87 %
23.04.2017 10:18 8,9 C 18,9 C 14,4 C 69 % 0 lf 1025,3 hPa 0,0 l/m 2 min 0 min 620 W/m 20,9 km/h (4 Bft) 97,87 %
23.04.2017 10:20 8,9 C 17,8 C 13,9 C 67 % 0 lf 1025,4 hPa 0,0 l/m 2 min 0 min 615 W/m 25,1 km/h (4 Bft) 97,96 %
23.04.2017 10:22 8,9 C 17,8 C 13,9 C 67 % 0 lf 1025,3 hPa 0,0 l/m 2 min 0 min 622 W/m 23,0 km/h (4 Bft) 95,74 %
23.04.2017 10:24 9,1 C 18,9 C 13,9 C 68 % 0 lf 1025,3 hPa 0,0 l/m 2 min 0 min 622 W/m 18,8 km/h (3 Bft) 97,87 %
23.04.2017 10:26 9,2 C 18,9 C 13,9 C 68 % 0 lf 1025,3 hPa 0,0 l/m 2 min 0 min 606 W/m 16,7 km/h (3 Bft) 94,29 %
23.04.2017 10:28 9,2 C 19,4 C 14,4 C 67 % 0 lf 1025,3 hPa 0,0 l/m 2 min 0 min 589 W/m 18,8 km/h (3 Bft) 100,00 %
23.04.2017 10:30 9,3 C 20,0 C 15,0 C 66 % 0 lf 1025,3 hPa 0,0 l/m 2 min 0 min 626 W/m 14,6 km/h (3 Bft) 100,00 %
23.04.2017 10:32 9,3 C 18,3 C 13,9 C 65 % 0 lf 1025,3 hPa 0,0 l/m 2 min 0 min 642 W/m 20,9 km/h (4 Bft) 100,00 %
23.04.2017 10:34 9,3 C 18,9 C 15,0 C 65 % 0 lf 1025,3 hPa 0,0 l/m 2 min 0 min 684 W/m 16,7 km/h (3 Bft) 100,00 %
23.04.2017 10:36 9,4 C 18,9 C 15,0 C 65 % 0 lf 1025,3 hPa 0,0 l/m 2 min 0 min 637 W/m 12,6 km/h (3 Bft) 100,00 %
23.04.2017 10:38 9,5 C 19,4 C 15,0 C 66 % 0 lf 1025,4 hPa 0,0 l/m 2 min 0 min 697 W/m 25,1 km/h (4 Bft) 100,00 %
23.04.2017 10:40 9,6 C 19,4 C 15,0 C 64 % 0 lf 1025,3 hPa 0,0 l/m 2 min 0 min 661 W/m 23,0 km/h (4 Bft) 100,00 %
23.04.2017 10:42 9,6 C 19,4 C 14,4 C 62 % 0 lf 1025,4 hPa 0,0 l/m 2 min 0 min 686 W/m 20,9 km/h (4 Bft) 98,18 %
23.04.2017 10:44 9,6 C 19,4 C 14,4 C 62 % 0 lf 1025,4 hPa 0,0 l/m 2 min 0 min 726 W/m 16,7 km/h (3 Bft) 100,00 %
23.04.2017 10:46 9,7 C 20,6 C 15,0 C 62 % 0 lf 1025,4 hPa 0,0 l/m 2 min 0 min 731 W/m 12,6 km/h (3 Bft) 100,00 %
23.04.2017 10:48 9,7 C 21,7 C 16,7 C 62 % 0 lf 1025,3 hPa 0,0 l/m 2 min 0 min 751 W/m 14,6 km/h (3 Bft) 95,74 %
23.04.2017 10:50 9,8 C 21,1 C 16,1 C 62 % 0 lf 1025,3 hPa 0,0 l/m 2 min 0 min 763 W/m 16,7 km/h (3 Bft) 97,87 %
23.04.2017 10:52 9,9 C 19,4 C 14,4 C 62 % 0 lf 1025,3 hPa 0,0 l/m 2 min 0 min 686 W/m 12,6 km/h (3 Bft) 100,00 %
23.04.2017 10:54 9,9 C 18,9 C 13,9 C 61 % 0 lf 1025,4 hPa 0,0 l/m 2 min 0 min 700 W/m 14,6 km/h (3 Bft) 100,00 %
23.04.2017 10:56 9,9 C 17,8 C 12,8 C 60 % 0 lf 1025,4 hPa 0,0 l/m 2 min 0 min 714 W/m 23,0 km/h (4 Bft) 100,00 %
23.04.2017 10:58 9,9 C 16,1 C 11,7 C 60 % 0 lf 1025,4 hPa 0,0 l/m 2 min 0 min 456 W/m 18,8 km/h (3 Bft) 100,00 %
23.04.2017 11:00 9,9 C 16,7 C 11,7 C 60 % 0 lf 1025,3 hPa 0,0 l/m 2 min 0 min 413 W/m 16,7 km/h (3 Bft) 100,00 %
23.04.2017 11:02 9,9 C 18,3 C 11,7 C 61 % 0 lf 1025,4 hPa 0,0 l/m 2 min 0 min 751 W/m 18,8 km/h (3 Bft) 95,74 %
23.04.2017 11:04 10,0 C 18,9 C 11,7 C 61 % 0 lf 1025,3 hPa 0,0 l/m 2 min 0 min 767 W/m 18,8 km/h (3 Bft) 100,00 %
23.04.2017 11:06 10,1 C 20,6 C 12,2 C 61 % 0 lf 1025,3 hPa 0,0 l/m 2 min 0 min 785 W/m 14,6 km/h (3 Bft) 93,33 %
23.04.2017 11:08 10,1 C 18,9 C 12,8 C 59 % 0 lf 1025,4 hPa 0,0 l/m 2 min 0 min 810 W/m 29,3 km/h (5 Bft) 100,00 %
23.04.2017 11:10 10,1 C 20,0 C 13,9 C 59 % 0 lf 1025,4 hPa 0,0 l/m 2 min 0 min 805 W/m 18,8 km/h (3 Bft) 100,00 %
23.04.2017 11:12 10,2 C 21,1 C 15,0 C 59 % 0 lf 1025,3 hPa 0,0 l/m 2 min 0 min 777 W/m 12,6 km/h (3 Bft) 95,65 %
23.04.2017 11:14 10,4 C 21,7 C 16,1 C 58 % 0 lf 1025,4 hPa 0,0 l/m 2 min 0 min 782 W/m 12,6 km/h (3 Bft) 95,74 %
23.04.2017 11:16 10,4 C 21,1 C 16,1 C 58 % 0 lf 1025,4 hPa 0,0 l/m 2 min 0 min 793 W/m 29,3 km/h (5 Bft) 95,74 %
23.04.2017 11:18 10,4 C 21,1 C 16,1 C 57 % 0 lf 1025,4 hPa 0,0 l/m 2 min 0 min 852 W/m 25,1 km/h (4 Bft) 97,87 %
23.04.2017 11:20 10,5 C 20,6 C 16,1 C 58 % 0 lf 1025,4 hPa 0,0 l/m 2 min 0 min 803 W/m 23,0 km/h (4 Bft) 97,87 %
23.04.2017 11:22 10,6 C 20,6 C 16,1 C 56 % 0 lf 1025,3 hPa 0,0 l/m 2 min 0 min 799 W/m 23,0 km/h (4 Bft) 95,65 %
23.04.2017 11:24 10,6 C 21,7 C 17,8 C 59 % 0 lf 1025,3 hPa 0,0 l/m 2 min 0 min 788 W/m 10,5 km/h (2 Bft) 93,62 %
23.04.2017 11:26 10,8 C 21,7 C 17,8 C 60 % 0 lf 1025,2 hPa 0,0 l/m 2 min 0 min 788 W/m 20,9 km/h (4 Bft) 97,87 %
23.04.2017 11:28 10,9 C 19,4 C 16,7 C 60 % 0 lf 1025,3 hPa 0,0 l/m 2 min 0 min 788 W/m 18,8 km/h (3 Bft) 98,15 %
23.04.2017 11:30 11,0 C 18,9 C 16,1 C 60 % 0 lf 1025,3 hPa 0,0 l/m 2 min 0 min 788 W/m 23,0 km/h (4 Bft) 97,87 %
23.04.2017 11:32 11,1 C 16,7 C 15,0 C 59 % 0 lf 1025,4 hPa 0,0 l/m 2 min 0 min 369 W/m 12,6 km/h (3 Bft) 97,87 %
23.04.2017 11:34 11,1 C 15,6 C 13,9 C 59 % 0 lf 1025,4 hPa 0,0 l/m 0 min 0 min 318 W/m 16,7 km/h (3 Bft) 97,87 %
23.04.2017 11:36 11,1 C 15,0 C 13,3 C 58 % 0 lf 1025,4 hPa 0,0 l/m 0 min 0 min 332 W/m 14,6 km/h (3 Bft) 97,87 %
23.04.2017 11:38 11,0 C 13,9 C 12,8 C 56 % 0 lf 1025,4 hPa 0,0 l/m 0 min 0 min 339 W/m 25,1 km/h (4 Bft) 97,37 %
23.04.2017 11:40 10,9 C 13,3 C 12,2 C 56 % 0 lf 1025,4 hPa 0,0 l/m 0 min 0 min 300 W/m 20,9 km/h (4 Bft) 97,83 %
23.04.2017 11:42 10,8 C 12,8 C 11,1 C 55 % 0 lf 1025,5 hPa 0,0 l/m 0 min 0 min 271 W/m 14,6 km/h (3 Bft) 97,87 %
23.04.2017 11:44 10,7 C 12,2 C 10,6 C 55 % 0 lf 1025,4 hPa 0,0 l/m 0 min 0 min 216 W/m 16,7 km/h (3 Bft) 95,74 %
23.04.2017 11:46 10,6 C 12,2 C 10,6 C 56 % 0 lf 1025,4 hPa 0,0 l/m 0 min 0 min 227 W/m 14,6 km/h (3 Bft) 97,87 %
23.04.2017 11:48 10,4 C 11,7 C 10,6 C 58 % 0 lf 1025,4 hPa 0,0 l/m 0 min 0 min 241 W/m 14,6 km/h (3 Bft) 95,83 %
23.04.2017 11:50 10,4 C 12,2 C 11,1 C 58 % 0 lf 1025,4 hPa 0,0 l/m 0 min 0 min 239 W/m 16,7 km/h (3 Bft) 95,74 %
23.04.2017 11:52 10,3 C 13,3 C 11,7 C 58 % 0 lf 1025,4 hPa 0,0 l/m 0 min 0 min 276 W/m 18,8 km/h (3 Bft) 95,74 %
23.04.2017 11:54 10,2 C 15,0 C 12,2 C 59 % 0 lf 1025,5 hPa 0,0 l/m 2 min 0 min 482 W/m 18,8 km/h (3 Bft) 97,87 %
23.04.2017 11:56 10,2 C 15,6 C 12,2 C 58 % 0 lf 1025,4 hPa 0,0 l/m 2 min 0 min 492 W/m 16,7 km/h (3 Bft) 97,87 %
23.04.2017 11:58 10,2 C 15,6 C 12,8 C 58 % 0 lf 1025,5 hPa 0,0 l/m 2 min 0 min 408 W/m 20,9 km/h (4 Bft) 95,65 %
23.04.2017 12:00 10,1 C 17,2 C 13,9 C 58 % 0 lf 1025,5 hPa 0,0 l/m 2 min 0 min 408 W/m 16,7 km/h (3 Bft) 93,62 %
23.04.2017 12:02 10,1 C 19,4 C 15,0 C 58 % 0 lf 1025,4 hPa 0,0 l/m 2 min 0 min 408 W/m 18,8 km/h (3 Bft) 97,87 %
23.04.2017 12:04 10,2 C 20,0 C 15,6 C 60 % 0 lf 1025,4 hPa 0,0 l/m 2 min 0 min 408 W/m 16,7 km/h (3 Bft) 94,44 %
23.04.2017 12:06 10,3 C 17,2 C 13,9 C 60 % 0 lf 1025,4 hPa 0,0 l/m 2 min 0 min 400 W/m 23,0 km/h (4 Bft) 97,87 %
23.04.2017 12:08 10,3 C 15,0 C 12,8 C 59 % 0 lf 1025,5 hPa 0,0 l/m 2 min 0 min 419 W/m 27,2 km/h (4 Bft) 100,00 %
23.04.2017 12:10 10,2 C 14,4 C 12,2 C 58 % 0 lf 1025,5 hPa 0,0 l/m 2 min 0 min 367 W/m 18,8 km/h (3 Bft) 97,87 %
23.04.2017 12:12 10,2 C 13,9 C 12,2 C 59 % 0 lf 1025,3 hPa 0,0 l/m 0 min 0 min 322 W/m 8,4 km/h (2 Bft) 93,62 %
23.04.2017 12:14 10,2 C 14,4 C 12,8 C 59 % 0 lf 1025,3 hPa 0,0 l/m 2 min 0 min 409 W/m 14,6 km/h (3 Bft) 95,74 %
23.04.2017 12:16 10,3 C 16,1 C 13,3 C 59 % 0 lf 1025,4 hPa 0,0 l/m 2 min 0 min 483 W/m 14,6 km/h (3 Bft) 97,87 %
23.04.2017 12:18 10,3 C 15,0 C 12,8 C 59 % 0 lf 1025,3 hPa 0,0 l/m 2 min 0 min 468 W/m 20,9 km/h (4 Bft) 97,87 %
23.04.2017 12:20 10,2 C 15,0 C 12,8 C 59 % 0 lf 1025,3 hPa 0,0 l/m 2 min 0 min 446 W/m 16,7 km/h (3 Bft) 95,74 %
23.04.2017 12:22 10,2 C 14,4 C 12,2 C 59 % 0 lf 1025,3 hPa 0,0 l/m 2 min 0 min 406 W/m 20,9 km/h (4 Bft) 91,30 %
23.04.2017 12:24 10,2 C 13,9 C 11,7 C 59 % 0 lf 1025,3 hPa 0,0 l/m 0 min 0 min 351 W/m 20,9 km/h (4 Bft) 93,62 %
23.04.2017 12:26 10,1 C 12,8 C 11,7 C 59 % 0 lf 1025,4 hPa 0,0 l/m 0 min 0 min 364 W/m 25,1 km/h (4 Bft) 93,62 %
23.04.2017 12:28 10,1 C 12,8 C 11,1 C 59 % 0 lf 1025,3 hPa 0,0 l/m 0 min 0 min 334 W/m 20,9 km/h (4 Bft) 93,62 %
23.04.2017 12:30 10,0 C 12,8 C 11,7 C 60 % 0 lf 1025,3 hPa 0,0 l/m 0 min 0 min 309 W/m 14,6 km/h (3 Bft) 95,74 %
23.04.2017 12:32 10,0 C 12,8 C 11,7 C 60 % 0 lf 1025,3 hPa 0,0 l/m 0 min 0 min 304 W/m 12,6 km/h (3 Bft) 91,49 %
23.04.2017 12:34 10,0 C 12,8 C 12,2 C 60 % 0 lf 1025,2 hPa 0,0 l/m 0 min 0 min 293 W/m 14,6 km/h (3 Bft) 93,48 %
23.04.2017 12:36 9,9 C 12,8 C 11,7 C 60 % 0 lf 1025,3 hPa 0,0 l/m 0 min 0 min 327 W/m 12,6 km/h (3 Bft) 93,62 %
23.04.2017 12:38 10,0 C 12,8 C 12,2 C 60 % 0 lf 1025,2 hPa 0,0 l/m 2 min 0 min 376 W/m 16,7 km/h (3 Bft) 93,62 %
23.04.2017 12:40 10,0 C 13,3 C 12,8 C 61 % 0 lf 1025,3 hPa 0,0 l/m 2 min 0 min 412 W/m 16,7 km/h (3 Bft) 93,62 %
23.04.2017 12:42 10,0 C 13,9 C 12,8 C 61 % 0 lf 1025,3 hPa 0,0 l/m 2 min 0 min 457 W/m 23,0 km/h (4 Bft) 87,23 %
23.04.2017 12:44 10,1 C 13,9 C 12,8 C 61 % 0 lf 1025,3 hPa 0,0 l/m 0 min 0 min 360 W/m 20,9 km/h (4 Bft) 93,62 %
23.04.2017 12:46 10,1 C 13,3 C 12,8 C 61 % 0 lf 1025,3 hPa 0,0 l/m 0 min 0 min 312 W/m 25,1 km/h (4 Bft) 95,65 %
23.04.2017 12:48 10,2 C 13,3 C 12,8 C 61 % 0 lf 1025,3 hPa 0,0 l/m 0 min 0 min 308 W/m 16,7 km/h (3 Bft) 93,62 %
23.04.2017 12:50 10,2 C 13,9 C 12,2 C 61 % 0 lf 1025,2 hPa 0,0 l/m 0 min 0 min 298 W/m 16,7 km/h (3 Bft) 95,74 %
23.04.2017 12:52 10,2 C 13,3 C 12,2 C 61 % 0 lf 1025,3 hPa 0,0 l/m 0 min 0 min 268 W/m 23,0 km/h (4 Bft) 93,62 %
23.04.2017 12:54 10,2 C 12,8 C 11,1 C 61 % 0 lf 1025,3 hPa 0,0 l/m 0 min 0 min 223 W/m 23,0 km/h (4 Bft) 93,62 %
23.04.2017 12:56 10,2 C 12,2 C 10,6 C 61 % 0 lf 1025,3 hPa 0,0 l/m 0 min 0 min 183 W/m 23,0 km/h (4 Bft) 95,65 %
23.04.2017 12:58 10,1 C 11,7 C 10,6 C 61 % 0 lf 1025,2 hPa 0,0 l/m 0 min 0 min 182 W/m 20,9 km/h (4 Bft) 91,49 %
23.04.2017 13:00 10,1 C 11,7 C 11,1 C 62 % 0 lf 1025,2 hPa 0,0 l/m 0 min 0 min 225 W/m 18,8 km/h (3 Bft) 93,62 %
23.04.2017 13:02 10,0 C 11,7 C 11,1 C 62 % 0 lf 1025,2 hPa 0,0 l/m 0 min 0 min 285 W/m 25,1 km/h (4 Bft) 96,36 %
23.04.2017 13:04 10,0 C 12,2 C 11,7 C 62 % 0 lf 1025,2 hPa 0,0 l/m 0 min 0 min 324 W/m 23,0 km/h (4 Bft) 95,74 %
23.04.2017 13:06 10,0 C 12,8 C 12,2 C 63 % 0 lf 1025,3 hPa 0,0 l/m 0 min 0 min 349 W/m 18,8 km/h (3 Bft) 97,87 %
23.04.2017 13:08 10,1 C 12,8 C 12,8 C 63 % 0 lf 1025,2 hPa 0,0 l/m 0 min 0 min 357 W/m 16,7 km/h (3 Bft) 95,74 %
23.04.2017 13:10 10,1 C 13,3 C 12,8 C 63 % 0 lf 1025,2 hPa 0,0 l/m 0 min 0 min 365 W/m 20,9 km/h (4 Bft) 97,87 %
23.04.2017 13:12 10,2 C 14,4 C 13,3 C 64 % 0 lf 1025,2 hPa 0,0 l/m 2 min 0 min 447 W/m 16,7 km/h (3 Bft) 93,48 %
23.04.2017 13:14 10,2 C 15,0 C 13,9 C 63 % 0 lf 1025,2 hPa 0,0 l/m 2 min 0 min 561 W/m 25,1 km/h (4 Bft) 97,87 %
23.04.2017 13:16 10,3 C 15,0 C 13,9 C 62 % 0 lf 1025,2 hPa 0,0 l/m 2 min 0 min 484 W/m 27,2 km/h (4 Bft) 97,87 %
23.04.2017 13:18 10,4 C 15,6 C 14,4 C 63 % 0 lf 1025,2 hPa 0,0 l/m 2 min 0 min 441 W/m 16,7 km/h (3 Bft) 97,87 %
23.04.2017 13:20 10,4 C 15,6 C 13,9 C 62 % 0 lf 1025,2 hPa 0,0 l/m 2 min 0 min 454 W/m 20,9 km/h (4 Bft) 100,00 %
23.04.2017 13:22 10,5 C 15,6 C 13,9 C 61 % 0 lf 1025,1 hPa 0,0 l/m 2 min 0 min 470 W/m 18,8 km/h (3 Bft) 91,30 %
23.04.2017 13:24 10,6 C 16,1 C 13,3 C 62 % 0 lf 1025,2 hPa 0,0 l/m 2 min 0 min 452 W/m 20,9 km/h (4 Bft) 100,00 %
23.04.2017 13:26 10,7 C 16,7 C 13,3 C 62 % 0 lf 1025,1 hPa 0,0 l/m 2 min 0 min 462 W/m 16,7 km/h (3 Bft) 100,00 %
23.04.2017 13:28 10,8 C 18,3 C 12,8 C 62 % 0 lf 1025,1 hPa 0,0 l/m 2 min 0 min 613 W/m 16,7 km/h (3 Bft) 100,00 %
23.04.2017 13:30 10,8 C 18,9 C 12,8 C 62 % 0 lf 1025,0 hPa 0,0 l/m 2 min 0 min 621 W/m 16,7 km/h (3 Bft) 100,00 %
23.04.2017 13:32 10,9 C 19,4 C 12,8 C 60 % 0 lf 1025,1 hPa 0,0 l/m 2 min 0 min 670 W/m 16,7 km/h (3 Bft) 100,00 %
23.04.2017 13:34 10,9 C 18,9 C 12,8 C 60 % 0 lf 1025,0 hPa 0,0 l/m 2 min 0 min 739 W/m 16,7 km/h (3 Bft) 97,87 %
23.04.2017 13:36 10,9 C 21,1 C 13,3 C 61 % 0 lf 1025,0 hPa 0,0 l/m 2 min 0 min 890 W/m 12,6 km/h (3 Bft) 100,00 %
23.04.2017 13:38 11,1 C 20,6 C 13,9 C 62 % 0 lf 1025,0 hPa 0,0 l/m 2 min 0 min 944 W/m 16,7 km/h (3 Bft) 95,65 %
23.04.2017 13:40 11,2 C 21,1 C 14,4 C 63 % 0 lf 1025,0 hPa 0,0 l/m 2 min 0 min 919 W/m 12,6 km/h (3 Bft) 100,00 %
23.04.2017 13:42 11,3 C 20,0 C 14,4 C 62 % 0 lf 1025,0 hPa 0,0 l/m 2 min 0 min 643 W/m 14,6 km/h (3 Bft) 97,87 %
23.04.2017 13:44 11,5 C 23,3 C 15,0 C 63 % 0 lf 1024,9 hPa 0,0 l/m 2 min 0 min 962 W/m 16,7 km/h (3 Bft) 100,00 %
23.04.2017 13:46 11,6 C 17,8 C 15,0 C 60 % 0 lf 1024,9 hPa 0,0 l/m 2 min 0 min 851 W/m 23,0 km/h (4 Bft) 100,00 %
23.04.2017 13:48 11,7 C 17,8 C 15,0 C 60 % 0 lf 1024,9 hPa 0,0 l/m 2 min 0 min 399 W/m 18,8 km/h (3 Bft) 100,00 %
23.04.2017 13:50 11,7 C 16,1 C 14,4 C 59 % 0 lf 1024,9 hPa 0,0 l/m 0 min 0 min 344 W/m 20,9 km/h (4 Bft) 100,00 %
23.04.2017 13:52 11,7 C 15,6 C 13,9 C 58 % 0 lf 1024,9 hPa 0,0 l/m 0 min 0 min 296 W/m 18,8 km/h (3 Bft) 100,00 %
23.04.2017 13:54 11,7 C 14,4 C 12,8 C 57 % 0 lf 1025,0 hPa 0,0 l/m 0 min 0 min 232 W/m 20,9 km/h (4 Bft) 97,87 %
23.04.2017 13:56 11,6 C 13,3 C 12,2 C 57 % 0 lf 1024,9 hPa 0,0 l/m 0 min 0 min 216 W/m 16,7 km/h (3 Bft) 97,83 %
23.04.2017 13:58 11,6 C 13,3 C 12,2 C 58 % 0 lf 1025,0 hPa 0,0 l/m 0 min 0 min 236 W/m 14,6 km/h (3 Bft) 97,87 %
23.04.2017 14:00 11,5 C 13,3 C 12,2 C 57 % 0 lf 1024,9 hPa 0,0 l/m 0 min 0 min 261 W/m 20,9 km/h (4 Bft) 97,87 %
23.04.2017 14:02 11,4 C 12,8 C 12,2 C 58 % 0 lf 1024,8 hPa 0,0 l/m 0 min 0 min 287 W/m 20,9 km/h (4 Bft) 100,00 %
23.04.2017 14:04 11,3 C 13,3 C 12,8 C 59 % 0 lf 1024,9 hPa 0,0 l/m 0 min 0 min 329 W/m 23,0 km/h (4 Bft) 100,00 %
23.04.2017 14:06 11,2 C 13,3 C 12,8 C 58 % 0 lf 1024,8 hPa 0,0 l/m 2 min 0 min 396 W/m 25,1 km/h (4 Bft) 97,83 %
23.04.2017 14:08 11,2 C 13,9 C 13,3 C 59 % 0 lf 1024,8 hPa 0,0 l/m 2 min 0 min 431 W/m 25,1 km/h (4 Bft) 97,87 %
23.04.2017 14:10 11,1 C 14,4 C 13,3 C 60 % 0 lf 1024,7 hPa 0,0 l/m 2 min 0 min 448 W/m 14,6 km/h (3 Bft) 97,87 %
23.04.2017 14:12 11,1 C 15,6 C 13,3 C 60 % 0 lf 1024,7 hPa 0,0 l/m 0 min 0 min 375 W/m 14,6 km/h (3 Bft) 95,74 %
23.04.2017 14:14 11,2 C 15,0 C 13,3 C 61 % 0 lf 1024,7 hPa 0,0 l/m 0 min 0 min 287 W/m 16,7 km/h (3 Bft) 95,74 %
23.04.2017 14:16 11,2 C 13,9 C 12,2 C 60 % 0 lf 1024,7 hPa 0,0 l/m 0 min 0 min 246 W/m 20,9 km/h (4 Bft) 95,74 %
23.04.2017 14:18 11,1 C 13,3 C 12,2 C 59 % 0 lf 1024,7 hPa 0,0 l/m 0 min 0 min 265 W/m 14,6 km/h (3 Bft) 97,83 %
23.04.2017 14:20 11,1 C 13,3 C 12,8 C 60 % 0 lf 1024,7 hPa 0,0 l/m 0 min 0 min 314 W/m 18,8 km/h (3 Bft) 95,74 %
23.04.2017 14:22 11,1 C 13,9 C 12,8 C 59 % 0 lf 1024,6 hPa 0,0 l/m 0 min 0 min 349 W/m 20,9 km/h (4 Bft) 96,36 %
23.04.2017 14:24 11,1 C 13,9 C 12,8 C 59 % 0 lf 1024,7 hPa 0,0 l/m 0 min 0 min 361 W/m 20,9 km/h (4 Bft) 97,87 %
23.04.2017 14:26 11,1 C 13,9 C 13,3 C 59 % 0 lf 1024,7 hPa 0,0 l/m 2 min 0 min 384 W/m 18,8 km/h (3 Bft) 95,74 %
23.04.2017 14:28 11,1 C 14,4 C 13,9 C 59 % 0 lf 1024,6 hPa 0,0 l/m 2 min 0 min 439 W/m 20,9 km/h (4 Bft) 97,37 %
23.04.2017 14:30 11,1 C 17,2 C 15,6 C 60 % 0 lf 1024,7 hPa 0,0 l/m 2 min 0 min 508 W/m 16,7 km/h (3 Bft) 93,62 %
23.04.2017 14:32 11,3 C 20,0 C 18,9 C 62 % 0 lf 1024,7 hPa 0,0 l/m 2 min 0 min 508 W/m 25,1 km/h (4 Bft) 91,49 %
23.04.2017 14:34 11,4 C 20,0 C 18,3 C 61 % 0 lf 1024,7 hPa 0,0 l/m 2 min 0 min 517 W/m 20,9 km/h (4 Bft) 95,74 %
23.04.2017 14:36 11,6 C 20,0 C 17,8 C 62 % 0 lf 1024,6 hPa 0,0 l/m 2 min 0 min 530 W/m 14,6 km/h (3 Bft) 95,65 %
23.04.2017 14:38 11,7 C 17,8 C 16,7 C 60 % 0 lf 1024,6 hPa 0,0 l/m 2 min 0 min 382 W/m 25,1 km/h (4 Bft) 95,83 %
23.04.2017 14:40 11,8 C 16,7 C 15,6 C 59 % 0 lf 1024,6 hPa 0,0 l/m 0 min 0 min 309 W/m 14,6 km/h (3 Bft) 95,74 %
23.04.2017 14:42 11,8 C 15,6 C 13,9 C 59 % 0 lf 1024,6 hPa 0,0 l/m 0 min 0 min 237 W/m 20,9 km/h (4 Bft) 97,83 %
23.04.2017 14:44 11,8 C 14,4 C 13,3 C 58 % 0 lf 1024,6 hPa 0,0 l/m 0 min 0 min 190 W/m 14,6 km/h (3 Bft) 95,74 %
23.04.2017 14:46 11,8 C 13,9 C 12,2 C 58 % 0 lf 1024,6 hPa 0,0 l/m 0 min 0 min 165 W/m 14,6 km/h (3 Bft) 91,49 %
23.04.2017 14:48 11,7 C 13,3 C 11,7 C 58 % 0 lf 1024,6 hPa 0,0 l/m 0 min 0 min 148 W/m 12,6 km/h (3 Bft) 93,62 %
23.04.2017 14:50 11,7 C 12,8 C 11,7 C 58 % 0 lf 1024,6 hPa 0,0 l/m 0 min 0 min 128 W/m 20,9 km/h (4 Bft) 95,74 %
23.04.2017 14:52 11,6 C 12,2 C 11,1 C 59 % 0 lf 1024,6 hPa 0,0 l/m 0 min 0 min 111 W/m 16,7 km/h (3 Bft) 95,74 %
23.04.2017 14:54 11,5 C 11,7 C 10,6 C 59 % 0 lf 1024,6 hPa 0,0 l/m 0 min 0 min 99 W/m 16,7 km/h (3 Bft) 93,48 %
23.04.2017 14:56 11,4 C 11,7 C 10,6 C 59 % 0 lf 1024,5 hPa 0,0 l/m 0 min 0 min 90 W/m 20,9 km/h (4 Bft) 97,87 %
23.04.2017 14:58 11,3 C 11,7 C 10,0 C 59 % 0 lf 1024,6 hPa 0,0 l/m 0 min 0 min 85 W/m 14,6 km/h (3 Bft) 95,74 %
23.04.2017 15:00 11,2 C 11,1 C 10,0 C 59 % 0 lf 1024,5 hPa 0,0 l/m 0 min 0 min 85 W/m 20,9 km/h (4 Bft) 95,74 %
23.04.2017 15:02 11,1 C 11,1 C 9,4 C 60 % 0 lf 1024,5 hPa 0,0 l/m 0 min 0 min 89 W/m 18,8 km/h (3 Bft) 92,73 %
23.04.2017 15:04 10,9 C 10,6 C 9,4 C 60 % 0 lf 1024,6 hPa 0,0 l/m 0 min 0 min 96 W/m 23,0 km/h (4 Bft) 87,23 %
23.04.2017 15:06 10,8 C 10,6 C 9,4 C 60 % 0 lf 1024,5 hPa 0,0 l/m 0 min 0 min 107 W/m 20,9 km/h (4 Bft) 95,74 %
23.04.2017 15:08 10,7 C 11,1 C 10,0 C 61 % 0 lf 1024,5 hPa 0,0 l/m 0 min 0 min 120 W/m 20,9 km/h (4 Bft) 95,65 %
23.04.2017 15:10 10,7 C 11,1 C 10,0 C 60 % 0 lf 1024,5 hPa 0,0 l/m 0 min 0 min 132 W/m 16,7 km/h (3 Bft) 100,00 %
23.04.2017 15:12 10,6 C 11,1 C 10,0 C 61 % 0 lf 1024,5 hPa 0,0 l/m 0 min 0 min 136 W/m 12,6 km/h (3 Bft) 95,74 %
23.04.2017 15:14 10,5 C 11,1 C 10,0 C 61 % 0 lf 1024,5 hPa 0,0 l/m 0 min 0 min 130 W/m 18,8 km/h (3 Bft) 97,87 %
23.04.2017 15:16 10,4 C 11,1 C 10,0 C 61 % 0 lf 1024,5 hPa 0,0 l/m 0 min 0 min 121 W/m 16,7 km/h (3 Bft) 93,62 %
23.04.2017 15:18 10,4 C 11,1 C 10,0 C 61 % 0 lf 1024,5 hPa 0,0 l/m 0 min 0 min 116 W/m 14,6 km/h (3 Bft) 95,74 %
23.04.2017 15:20 10,4 C 11,1 C 10,0 C 62 % 0 lf 1024,5 hPa 0,0 l/m 0 min 0 min 108 W/m 14,6 km/h (3 Bft) 93,48 %
23.04.2017 15:22 10,3 C 11,1 C 10,0 C 62 % 0 lf 1024,6 hPa 0,0 l/m 0 min 0 min 97 W/m 12,6 km/h (3 Bft) 93,62 %
23.04.2017 15:24 10,3 C 11,1 C 10,0 C 62 % 0 lf 1024,5 hPa 0,0 l/m 0 min 0 min 88 W/m 16,7 km/h (3 Bft) 97,87 %
23.04.2017 15:26 10,2 C 10,6 C 9,4 C 62 % 0 lf 1024,5 hPa 0,0 l/m 0 min 0 min 80 W/m 14,6 km/h (3 Bft) 95,74 %
23.04.2017 15:28 10,2 C 10,6 C 9,4 C 62 % 0 lf 1024,5 hPa 0,0 l/m 0 min 0 min 77 W/m 20,9 km/h (4 Bft) 95,74 %
23.04.2017 15:30 10,2 C 10,6 C 9,4 C 63 % 0 lf 1024,5 hPa 0,0 l/m 0 min 0 min 72 W/m 16,7 km/h (3 Bft) 97,87 %
23.04.2017 15:32 10,1 C 10,6 C 9,4 C 63 % 1 lf 1024,5 hPa 0,0 l/m 0 min 0 min 65 W/m 14,6 km/h (3 Bft) 93,48 %
23.04.2017 15:34 10,1 C 10,0 C 9,4 C 64 % 0 lf 1024,5 hPa 0,0 l/m 0 min 0 min 55 W/m 20,9 km/h (4 Bft) 97,37 %
23.04.2017 15:36 10,0 C 10,0 C 8,9 C 64 % 3 lf 1024,4 hPa 0,0 l/m 0 min 2 min 51 W/m 25,1 km/h (4 Bft) 93,62 %
23.04.2017 15:38 9,9 C 10,0 C 8,3 C 65 % 1 lf 1024,6 hPa 0,0 l/m 0 min 2 min 49 W/m 29,3 km/h (5 Bft) 95,74 %
23.04.2017 15:40 9,8 C 9,4 C 8,3 C 65 % 0 lf 1024,7 hPa 0,0 l/m 0 min 0 min 51 W/m 33,5 km/h (5 Bft) 95,74 %
23.04.2017 15:42 9,7 C 9,4 C 8,3 C 66 % 2 lf 1024,6 hPa 0,0 l/m 0 min 0 min 55 W/m 27,2 km/h (4 Bft) 95,74 %
23.04.2017 15:44 9,6 C 9,4 C 8,3 C 66 % 1 lf 1024,6 hPa 0,0 l/m 0 min 0 min 58 W/m 20,9 km/h (4 Bft) 95,74 %
23.04.2017 15:46 9,6 C 9,4 C 7,8 C 67 % 1 lf 1024,6 hPa 0,0 l/m 0 min 2 min 60 W/m 14,6 km/h (3 Bft) 97,87 %
23.04.2017 15:48 9,4 C 9,4 C 7,8 C 67 % 0 lf 1024,6 hPa 0,0 l/m 0 min 0 min 62 W/m 20,9 km/h (4 Bft) 97,87 %
23.04.2017 15:50 9,3 C 8,9 C 7,8 C 67 % 0 lf 1024,6 hPa 0,0 l/m 0 min 0 min 62 W/m 25,1 km/h (4 Bft) 97,87 %
23.04.2017 15:52 9,3 C 8,9 C 7,8 C 67 % 0 lf 1024,6 hPa 0,0 l/m 0 min 0 min 63 W/m 16,7 km/h (3 Bft) 97,83 %
23.04.2017 15:54 9,2 C 8,9 C 7,8 C 68 % 0 lf 1024,6 hPa 0,0 l/m 0 min 0 min 67 W/m 18,8 km/h (3 Bft) 93,62 %
23.04.2017 15:56 9,1 C 8,9 C 7,8 C 68 % 0 lf 1024,6 hPa 0,0 l/m 0 min 0 min 73 W/m 25,1 km/h (4 Bft) 95,74 %
23.04.2017 15:58 9,0 C 8,9 C 7,8 C 68 % 0 lf 1024,6 hPa 0,0 l/m 0 min 0 min 79 W/m 20,9 km/h (4 Bft) 97,87 %
23.04.2017 16:00 8,9 C 8,9 C 7,8 C 69 % 0 lf 1024,6 hPa 0,0 l/m 0 min 0 min 84 W/m 20,9 km/h (4 Bft) 95,74 %
23.04.2017 16:02 8,9 C 8,9 C 7,8 C 69 % 0 lf 1024,5 hPa 0,0 l/m 0 min 0 min 92 W/m 20,9 km/h (4 Bft) 97,87 %
23.04.2017 16:04 8,8 C 9,4 C 8,3 C 69 % 0 lf 1024,5 hPa 0,0 l/m 0 min 0 min 102 W/m 14,6 km/h (3 Bft) 98,18 %
23.04.2017 16:06 8,8 C 9,4 C 8,3 C 70 % 0 lf 1024,5 hPa 0,0 l/m 0 min 0 min 110 W/m 18,8 km/h (3 Bft) 97,37 %
23.04.2017 16:08 8,7 C 9,4 C 8,3 C 70 % 0 lf 1024,4 hPa 0,0 l/m 0 min 0 min 119 W/m 12,6 km/h (3 Bft) 95,74 %
23.04.2017 16:10 8,7 C 9,4 C 8,9 C 70 % 0 lf 1024,4 hPa 0,0 l/m 0 min 0 min 139 W/m 12,6 km/h (3 Bft) 97,87 %
23.04.2017 16:12 8,7 C 10,0 C 8,9 C 71 % 0 lf 1024,4 hPa 0,0 l/m 0 min 0 min 167 W/m 12,6 km/h (3 Bft) 97,87 %
23.04.2017 16:14 8,7 C 10,6 C 9,4 C 71 % 0 lf 1024,4 hPa 0,0 l/m 0 min 0 min 207 W/m 14,6 km/h (3 Bft) 97,87 %
23.04.2017 16:16 8,7 C 10,6 C 10,0 C 71 % 0 lf 1024,4 hPa 0,0 l/m 0 min 0 min 261 W/m 14,6 km/h (3 Bft) 95,65 %
23.04.2017 16:18 8,7 C 11,1 C 10,0 C 71 % 0 lf 1024,4 hPa 0,0 l/m 2 min 0 min 340 W/m 12,6 km/h (3 Bft) 95,74 %
23.04.2017 16:20 8,8 C 13,3 C 11,1 C 71 % 0 lf 1024,4 hPa 0,0 l/m 2 min 0 min 376 W/m 16,7 km/h (3 Bft) 95,74 %
23.04.2017 16:22 8,8 C 15,0 C 12,2 C 71 % 0 lf 1024,4 hPa 0,0 l/m 2 min 0 min 376 W/m 14,6 km/h (3 Bft) 97,87 %
23.04.2017 16:24 8,9 C 17,2 C 13,9 C 71 % 0 lf 1024,4 hPa 0,0 l/m 2 min 0 min 651 W/m 16,7 km/h (3 Bft) 93,62 %
23.04.2017 16:26 9,1 C 18,3 C 14,4 C 72 % 0 lf 1024,3 hPa 0,0 l/m 2 min 0 min 647 W/m 16,7 km/h (3 Bft) 97,83 %
23.04.2017 16:28 9,3 C 18,9 C 13,9 C 71 % 0 lf 1024,3 hPa 0,0 l/m 2 min 0 min 796 W/m 20,9 km/h (4 Bft) 94,64 %
23.04.2017 16:30 9,4 C 18,9 C 14,4 C 70 % 0 lf 1024,3 hPa 0,0 l/m 2 min 0 min 749 W/m 18,8 km/h (3 Bft) 100,00 %
23.04.2017 16:32 9,6 C 18,9 C 15,6 C 70 % 0 lf 1024,3 hPa 0,0 l/m 2 min 0 min 720 W/m 16,7 km/h (3 Bft) 97,87 %
23.04.2017 16:34 9,8 C 18,9 C 15,0 C 70 % 0 lf 1024,2 hPa 0,0 l/m 2 min 0 min 652 W/m 20,9 km/h (4 Bft) 95,74 %
23.04.2017 16:36 10,0 C 18,9 C 13,9 C 68 % 0 lf 1024,1 hPa 0,0 l/m 2 min 0 min 655 W/m 16,7 km/h (3 Bft) 97,87 %
23.04.2017 16:38 10,1 C 20,0 C 13,3 C 68 % 0 lf 1024,1 hPa 0,0 l/m 2 min 0 min 636 W/m 10,5 km/h (2 Bft) 95,74 %
23.04.2017 16:40 10,3 C 19,4 C 12,8 C 67 % 0 lf 1024,2 hPa 0,0 l/m 2 min 0 min 624 W/m 23,0 km/h (4 Bft) 95,74 %
23.04.2017 16:42 10,4 C 18,9 C 12,2 C 65 % 0 lf 1024,1 hPa 0,0 l/m 2 min 0 min 618 W/m 16,7 km/h (3 Bft) 97,83 %
23.04.2017 16:44 10,5 C 18,9 C 12,8 C 66 % 0 lf 1024,0 hPa 0,0 l/m 2 min 0 min 620 W/m 16,7 km/h (3 Bft) 97,87 %
23.04.2017 16:46 10,6 C 18,3 C 11,7 C 64 % 0 lf 1024,1 hPa 0,0 l/m 2 min 0 min 626 W/m 23,0 km/h (4 Bft) 97,87 %
23.04.2017 16:48 10,6 C 17,2 C 11,7 C 64 % 0 lf 1023,9 hPa 0,0 l/m 2 min 0 min 618 W/m 20,9 km/h (4 Bft) 97,87 %
23.04.2017 16:50 10,7 C 16,1 C 11,7 C 64 % 0 lf 1023,9 hPa 0,0 l/m 2 min 0 min 592 W/m 20,9 km/h (4 Bft) 97,87 %
23.04.2017 16:52 10,8 C 16,1 C 11,7 C 62 % 0 lf 1023,9 hPa 0,0 l/m 2 min 0 min 565 W/m 18,8 km/h (3 Bft) 97,87 %
23.04.2017 16:54 10,8 C 16,1 C 11,7 C 62 % 0 lf 1023,9 hPa 0,0 l/m 2 min 0 min 496 W/m 16,7 km/h (3 Bft) 97,37 %
23.04.2017 16:56 10,8 C 15,0 C 11,7 C 63 % 0 lf 1023,9 hPa 0,0 l/m 0 min 0 min 259 W/m 27,2 km/h (4 Bft) 97,87 %
23.04.2017 16:58 10,8 C 13,9 C 11,1 C 62 % 0 lf 1023,9 hPa 0,0 l/m 0 min 0 min 223 W/m 25,1 km/h (4 Bft) 97,87 %
23.04.2017 17:00 10,8 C 13,3 C 10,6 C 61 % 0 lf 1023,9 hPa 0,0 l/m 0 min 0 min 254 W/m 20,9 km/h (4 Bft) 100,00 %
23.04.2017 17:02 10,8 C 13,9 C 10,6 C 61 % 0 lf 1023,9 hPa 0,0 l/m 0 min 0 min 235 W/m 16,7 km/h (3 Bft) 95,65 %
23.04.2017 17:04 10,8 C 13,9 C 10,6 C 62 % 0 lf 1024,0 hPa 0,0 l/m 2 min 0 min 328 W/m 18,8 km/h (3 Bft) 96,36 %
23.04.2017 17:06 10,8 C 15,0 C 10,6 C 61 % 0 lf 1024,0 hPa 0,0 l/m 2 min 0 min 496 W/m 18,8 km/h (3 Bft) 97,87 %
23.04.2017 17:08 10,8 C 17,2 C 10,6 C 61 % 0 lf 1023,9 hPa 0,0 l/m 2 min 0 min 627 W/m 12,6 km/h (3 Bft) 100,00 %
23.04.2017 17:10 10,8 C 17,2 C 11,1 C 62 % 0 lf 1023,9 hPa 0,0 l/m 2 min 0 min 634 W/m 16,7 km/h (3 Bft) 97,87 %
23.04.2017 17:12 10,8 C 16,7 C 11,7 C 62 % 0 lf 1023,9 hPa 0,0 l/m 2 min 0 min 640 W/m 25,1 km/h (4 Bft) 97,87 %
23.04.2017 17:14 10,9 C 15,0 C 11,7 C 62 % 0 lf 1023,9 hPa 0,0 l/m 2 min 0 min 344 W/m 23,0 km/h (4 Bft) 95,74 %
23.04.2017 17:16 11,0 C 14,4 C 11,7 C 62 % 0 lf 1023,9 hPa 0,0 l/m 0 min 0 min 167 W/m 18,8 km/h (3 Bft) 97,87 %
23.04.2017 17:18 11,0 C 13,3 C 11,1 C 61 % 0 lf 1023,9 hPa 0,0 l/m 0 min 0 min 152 W/m 23,0 km/h (4 Bft) 97,87 %
23.04.2017 17:20 11,0 C 12,8 C 11,1 C 61 % 0 lf 1024,0 hPa 0,0 l/m 0 min 0 min 144 W/m 16,7 km/h (3 Bft) 93,62 %
23.04.2017 17:22 11,0 C 12,8 C 11,1 C 61 % 0 lf 1024,0 hPa 0,0 l/m 0 min 0 min 144 W/m 16,7 km/h (3 Bft) 97,87 %
23.04.2017 17:24 11,0 C 12,8 C 11,1 C 62 % 0 lf 1023,9 hPa 0,0 l/m 0 min 0 min 151 W/m 16,7 km/h (3 Bft) 95,74 %
23.04.2017 17:26 11,0 C 12,2 C 11,1 C 61 % 0 lf 1023,9 hPa 0,0 l/m 0 min 0 min 158 W/m 18,8 km/h (3 Bft) 97,83 %
23.04.2017 17:28 11,0 C 12,8 C 11,1 C 62 % 0 lf 1023,8 hPa 0,0 l/m 0 min 0 min 158 W/m 10,5 km/h (2 Bft) 97,87 %
23.04.2017 17:30 10,9 C 12,2 C 11,1 C 62 % 0 lf 1023,9 hPa 0,0 l/m 0 min 0 min 158 W/m 14,6 km/h (3 Bft) 97,87 %
23.04.2017 17:32 10,9 C 12,2 C 11,1 C 62 % 0 lf 1023,9 hPa 0,0 l/m 0 min 0 min 172 W/m 14,6 km/h (3 Bft) 97,87 %
23.04.2017 17:34 10,9 C 12,2 C 11,1 C 62 % 0 lf 1023,8 hPa 0,0 l/m 0 min 0 min 171 W/m 10,5 km/h (2 Bft) 95,74 %
23.04.2017 17:36 10,9 C 12,2 C 11,1 C 62 % 0 lf 1023,8 hPa 0,0 l/m 0 min 0 min 173 W/m 14,6 km/h (3 Bft) 95,65 %
23.04.2017 17:38 10,9 C 12,2 C 11,1 C 62 % 0 lf 1023,8 hPa 0,0 l/m 0 min 0 min 182 W/m 16,7 km/h (3 Bft) 93,62 %
23.04.2017 17:40 10,8 C 12,2 C 11,1 C 62 % 0 lf 1023,7 hPa 0,0 l/m 0 min 0 min 165 W/m 16,7 km/h (3 Bft) 95,74 %
23.04.2017 17:42 10,8 C 12,2 C 10,6 C 62 % 0 lf 1023,7 hPa 0,0 l/m 0 min 0 min 145 W/m 16,7 km/h (3 Bft) 95,74 %
23.04.2017 17:44 10,8 C 12,2 C 10,6 C 62 % 0 lf 1023,6 hPa 0,0 l/m 0 min 0 min 130 W/m 20,9 km/h (4 Bft) 91,49 %
23.04.2017 17:46 10,7 C 12,2 C 10,6 C 62 % 0 lf 1023,6 hPa 0,0 l/m 0 min 0 min 116 W/m 14,6 km/h (3 Bft) 95,74 %
23.04.2017 17:48 10,7 C 11,7 C 10,0 C 62 % 0 lf 1023,6 hPa 0,0 l/m 0 min 0 min 102 W/m 16,7 km/h (3 Bft) 95,65 %
23.04.2017 17:50 10,7 C 11,7 C 10,0 C 62 % 0 lf 1023,6 hPa 0,0 l/m 0 min 0 min 85 W/m 10,5 km/h (2 Bft) 96,43 %
23.04.2017 17:52 10,7 C 11,7 C 10,0 C 63 % 0 lf 1023,5 hPa 0,0 l/m 0 min 0 min 69 W/m 4,2 km/h (1 Bft) 94,74 %
23.04.2017 17:54 10,6 C 11,1 C 10,0 C 63 % 0 lf 1023,6 hPa 0,0 l/m 0 min 0 min 60 W/m 18,8 km/h (3 Bft) 91,30 %
23.04.2017 17:56 10,6 C 11,1 C 9,4 C 63 % 0 lf 1023,5 hPa 0,0 l/m 0 min 0 min 56 W/m 12,6 km/h (3 Bft) 91,67 %
23.04.2017 17:58 10,6 C 11,1 C 9,4 C 63 % 0 lf 1023,5 hPa 0,0 l/m 0 min 0 min 60 W/m 20,9 km/h (4 Bft) 93,62 %
23.04.2017 18:00 10,5 C 11,1 C 9,4 C 63 % 0 lf 1023,5 hPa 0,0 l/m 0 min 0 min 71 W/m 16,7 km/h (3 Bft) 95,65 %
23.04.2017 18:02 10,5 C 10,6 C 9,4 C 63 % 0 lf 1023,5 hPa 0,0 l/m 0 min 0 min 85 W/m 12,6 km/h (3 Bft) 95,74 %
23.04.2017 18:04 10,4 C 10,6 C 10,0 C 63 % 0 lf 1023,5 hPa 0,0 l/m 0 min 0 min 100 W/m 20,9 km/h (4 Bft) 95,74 %
23.04.2017 18:06 10,4 C 11,1 C 10,0 C 63 % 0 lf 1023,5 hPa 0,0 l/m 0 min 0 min 119 W/m 16,7 km/h (3 Bft) 93,62 %
23.04.2017 18:08 10,4 C 11,1 C 10,6 C 63 % 0 lf 1023,5 hPa 0,0 l/m 0 min 0 min 134 W/m 12,6 km/h (3 Bft) 96,23 %
23.04.2017 18:10 10,4 C 11,1 C 10,6 C 62 % 0 lf 1023,6 hPa 0,0 l/m 0 min 0 min 141 W/m 20,9 km/h (4 Bft) 95,74 %
23.04.2017 18:12 10,4 C 11,1 C 10,6 C 63 % 0 lf 1023,6 hPa 0,0 l/m 0 min 0 min 138 W/m 12,6 km/h (3 Bft) 95,74 %
23.04.2017 18:14 10,4 C 11,7 C 10,6 C 62 % 0 lf 1023,6 hPa 0,0 l/m 0 min 0 min 125 W/m 14,6 km/h (3 Bft) 97,87 %
23.04.2017 18:16 10,4 C 11,7 C 10,6 C 63 % 0 lf 1023,6 hPa 0,0 l/m 0 min 0 min 108 W/m 14,6 km/h (3 Bft) 97,83 %
23.04.2017 18:18 10,4 C 11,7 C 10,6 C 63 % 0 lf 1023,6 hPa 0,0 l/m 0 min 0 min 102 W/m 14,6 km/h (3 Bft) 100,00 %
23.04.2017 18:20 10,4 C 11,1 C 10,0 C 63 % 0 lf 1023,6 hPa 0,0 l/m 0 min 0 min 101 W/m 14,6 km/h (3 Bft) 100,00 %
23.04.2017 18:22 10,4 C 11,7 C 10,6 C 63 % 0 lf 1023,5 hPa 0,0 l/m 0 min 0 min 106 W/m 8,4 km/h (2 Bft) 97,14 %
23.04.2017 18:24 10,4 C 11,7 C 10,6 C 63 % 0 lf 1023,5 hPa 0,0 l/m 0 min 0 min 111 W/m 18,8 km/h (3 Bft) 100,00 %
23.04.2017 18:26 10,4 C 11,1 C 10,6 C 63 % 0 lf 1023,5 hPa 0,0 l/m 0 min 0 min 113 W/m 16,7 km/h (3 Bft) 100,00 %
23.04.2017 18:28 10,4 C 11,1 C 10,6 C 63 % 0 lf 1023,5 hPa 0,0 l/m 0 min 0 min 112 W/m 16,7 km/h (3 Bft) 100,00 %
23.04.2017 18:30 10,4 C 11,1 C 10,6 C 63 % 0 lf 1023,5 hPa 0,0 l/m 0 min 0 min 111 W/m 16,7 km/h (3 Bft) 97,83 %
23.04.2017 18:32 10,4 C 11,1 C 10,6 C 63 % 0 lf 1023,5 hPa 0,0 l/m 0 min 0 min 108 W/m 12,6 km/h (3 Bft) 97,87 %
23.04.2017 18:34 10,3 C 11,1 C 10,0 C 63 % 0 lf 1023,5 hPa 0,0 l/m 0 min 0 min 105 W/m 16,7 km/h (3 Bft) 100,00 %
23.04.2017 18:36 10,3 C 11,1 C 10,0 C 63 % 0 lf 1023,5 hPa 0,0 l/m 0 min 0 min 102 W/m 12,6 km/h (3 Bft) 100,00 %
23.04.2017 18:38 10,3 C 11,1 C 10,0 C 63 % 0 lf 1023,5 hPa 0,0 l/m 0 min 0 min 98 W/m 18,8 km/h (3 Bft) 98,25 %
23.04.2017 18:40 10,3 C 11,1 C 10,0 C 63 % 0 lf 1023,5 hPa 0,0 l/m 0 min 0 min 95 W/m 16,7 km/h (3 Bft) 97,83 %
23.04.2017 18:42 10,3 C 11,1 C 10,0 C 63 % 0 lf 1023,6 hPa 0,0 l/m 0 min 0 min 95 W/m 12,6 km/h (3 Bft) 95,74 %
23.04.2017 18:44 10,3 C 11,1 C 10,0 C 63 % 0 lf 1023,6 hPa 0,0 l/m 0 min 0 min 95 W/m 14,6 km/h (3 Bft) 95,74 %
23.04.2017 18:46 10,3 C 11,1 C 10,0 C 63 % 0 lf 1023,5 hPa 0,0 l/m 0 min 0 min 95 W/m 16,7 km/h (3 Bft) 100,00 %
23.04.2017 18:48 10,3 C 11,1 C 10,0 C 63 % 0 lf 1023,5 hPa 0,0 l/m 0 min 0 min 95 W/m 18,8 km/h (3 Bft) 93,62 %
23.04.2017 18:50 10,2 C 11,1 C 9,4 C 63 % 0 lf 1023,6 hPa 0,0 l/m 0 min 0 min 97 W/m 16,7 km/h (3 Bft) 95,65 %
23.04.2017 18:52 10,2 C 11,1 C 10,0 C 63 % 0 lf 1023,6 hPa 0,0 l/m 0 min 0 min 101 W/m 14,6 km/h (3 Bft) 95,74 %
23.04.2017 18:54 10,2 C 11,1 C 10,0 C 63 % 0 lf 1023,6 hPa 0,0 l/m 0 min 0 min 111 W/m 16,7 km/h (3 Bft) 94,74 %
23.04.2017 18:56 10,2 C 11,1 C 10,0 C 64 % 0 lf 1023,6 hPa 0,0 l/m 0 min 0 min 123 W/m 16,7 km/h (3 Bft) 93,62 %
23.04.2017 18:58 10,2 C 10,6 C 9,4 C 64 % 0 lf 1023,6 hPa 0,0 l/m 0 min 0 min 124 W/m 12,6 km/h (3 Bft) 95,74 %
23.04.2017 19:00 10,2 C 10,6 C 9,4 C 65 % 0 lf 1023,6 hPa 0,0 l/m 0 min 0 min 107 W/m 16,7 km/h (3 Bft) 95,83 %
23.04.2017 19:02 10,1 C 10,0 C 8,9 C 65 % 0 lf 1023,7 hPa 0,0 l/m 0 min 0 min 87 W/m 18,8 km/h (3 Bft) 93,62 %
23.04.2017 19:04 10,0 C 10,0 C 8,9 C 65 % 0 lf 1023,6 hPa 0,0 l/m 0 min 0 min 73 W/m 16,7 km/h (3 Bft) 95,74 %
23.04.2017 19:06 9,9 C 10,0 C 8,9 C 66 % 0 lf 1023,6 hPa 0,0 l/m 0 min 0 min 67 W/m 18,8 km/h (3 Bft) 95,74 %
23.04.2017 19:08 9,8 C 10,0 C 8,9 C 66 % 0 lf 1023,6 hPa 0,0 l/m 0 min 0 min 64 W/m 12,6 km/h (3 Bft) 95,74 %
23.04.2017 19:10 9,8 C 10,0 C 8,9 C 66 % 0 lf 1023,6 hPa 0,0 l/m 0 min 0 min 61 W/m 12,6 km/h (3 Bft) 95,65 %
23.04.2017 19:12 9,7 C 10,0 C 8,9 C 66 % 0 lf 1023,6 hPa 0,0 l/m 0 min 0 min 58 W/m 12,6 km/h (3 Bft) 94,55 %
23.04.2017 19:14 9,7 C 10,0 C 8,3 C 67 % 0 lf 1023,6 hPa 0,0 l/m 0 min 0 min 54 W/m 12,6 km/h (3 Bft) 95,74 %
23.04.2017 19:16 9,7 C 10,0 C 8,3 C 67 % 0 lf 1023,5 hPa 0,0 l/m 0 min 0 min 50 W/m 10,5 km/h (2 Bft) 95,65 %
23.04.2017 19:18 9,6 C 10,0 C 8,3 C 67 % 0 lf 1023,6 hPa 0,0 l/m 0 min 0 min 47 W/m 12,6 km/h (3 Bft) 93,62 %
23.04.2017 19:20 9,6 C 9,4 C 8,3 C 67 % 0 lf 1023,5 hPa 0,0 l/m 0 min 0 min 45 W/m 12,6 km/h (3 Bft) 97,87 %
23.04.2017 19:22 9,5 C 9,4 C 8,3 C 67 % 0 lf 1023,6 hPa 0,0 l/m 0 min 0 min 43 W/m 10,5 km/h (2 Bft) 95,74 %
23.04.2017 19:24 9,4 C 9,4 C 8,3 C 68 % 0 lf 1023,5 hPa 0,0 l/m 0 min 0 min 44 W/m 10,5 km/h (2 Bft) 97,87 %
23.04.2017 19:26 9,4 C 9,4 C 8,3 C 68 % 0 lf 1023,5 hPa 0,0 l/m 0 min 0 min 46 W/m 8,4 km/h (2 Bft) 93,48 %
23.04.2017 19:28 9,4 C 9,4 C 8,3 C 68 % 0 lf 1023,5 hPa 0,0 l/m 0 min 0 min 49 W/m 12,6 km/h (3 Bft) 97,87 %
23.04.2017 19:30 9,4 C 9,4 C 8,3 C 68 % 0 lf 1023,5 hPa 0,0 l/m 0 min 0 min 52 W/m 12,6 km/h (3 Bft) 97,87 %
23.04.2017 19:32 9,3 C 9,4 C 8,3 C 68 % 0 lf 1023,5 hPa 0,0 l/m 0 min 0 min 53 W/m 12,6 km/h (3 Bft) 95,74 %
23.04.2017 19:34 9,3 C 9,4 C 8,3 C 68 % 0 lf 1023,5 hPa 0,0 l/m 0 min 0 min 51 W/m 10,5 km/h (2 Bft) 97,37 %
23.04.2017 19:36 9,3 C 9,4 C 8,3 C 68 % 0 lf 1023,5 hPa 0,0 l/m 0 min 0 min 48 W/m 12,6 km/h (3 Bft) 95,74 %
23.04.2017 19:38 9,3 C 9,4 C 8,3 C 68 % 0 lf 1023,5 hPa 0,0 l/m 0 min 0 min 44 W/m 10,5 km/h (2 Bft) 97,87 %
23.04.2017 19:40 9,2 C 9,4 C 8,3 C 68 % 0 lf 1023,5 hPa 0,0 l/m 0 min 0 min 46 W/m 10,5 km/h (2 Bft) 100,00 %
23.04.2017 19:42 9,2 C 9,4 C 8,3 C 69 % 0 lf 1023,5 hPa 0,0 l/m 0 min 0 min 44 W/m 10,5 km/h (2 Bft) 100,00 %
23.04.2017 19:44 9,2 C 9,4 C 8,3 C 69 % 0 lf 1023,6 hPa 0,0 l/m 0 min 0 min 43 W/m 10,5 km/h (2 Bft) 100,00 %
23.04.2017 19:46 9,2 C 9,4 C 8,3 C 69 % 0 lf 1023,6 hPa 0,0 l/m 0 min 0 min 39 W/m 8,4 km/h (2 Bft) 97,83 %
23.04.2017 19:48 9,2 C 9,4 C 8,3 C 69 % 0 lf 1023,6 hPa 0,0 l/m 0 min 0 min 36 W/m 6,3 km/h (2 Bft) 97,87 %
23.04.2017 19:50 9,2 C 9,4 C 8,3 C 69 % 0 lf 1023,6 hPa 0,0 l/m 0 min 0 min 33 W/m 6,3 km/h (2 Bft) 100,00 %
23.04.2017 19:52 9,2 C 9,4 C 8,3 C 69 % 0 lf 1023,5 hPa 0,0 l/m 0 min 0 min 32 W/m 8,4 km/h (2 Bft) 100,00 %
23.04.2017 19:54 9,2 C 9,4 C 8,3 C 70 % 0 lf 1023,5 hPa 0,0 l/m 0 min 0 min 29 W/m 6,3 km/h (2 Bft) 100,00 %
23.04.2017 19:56 9,1 C 9,4 C 7,8 C 69 % 0 lf 1023,5 hPa 0,0 l/m 0 min 0 min 28 W/m 8,4 km/h (2 Bft) 100,00 %
23.04.2017 19:58 9,1 C 9,4 C 7,8 C 70 % 0 lf 1023,5 hPa 0,0 l/m 0 min 0 min 28 W/m 10,5 km/h (2 Bft) 100,00 %
23.04.2017 20:00 9,1 C 9,4 C 7,8 C 70 % 0 lf 1023,5 hPa 0,0 l/m 0 min 0 min 26 W/m 8,4 km/h (2 Bft) 100,00 %
23.04.2017 20:02 9,1 C 9,4 C 7,8 C 70 % 0 lf 1023,5 hPa 0,0 l/m 0 min 0 min 25 W/m 6,3 km/h (2 Bft) 100,00 %
23.04.2017 20:04 9,1 C 9,4 C 7,8 C 70 % 0 lf 1023,5 hPa 0,0 l/m 0 min 0 min 24 W/m 4,2 km/h (1 Bft) 100,00 %
23.04.2017 20:06 9,1 C 9,4 C 7,8 C 70 % 0 lf 1023,4 hPa 0,0 l/m 0 min 0 min 21 W/m 6,3 km/h (2 Bft) 100,00 %
23.04.2017 20:08 9,1 C 9,4 C 7,8 C 70 % 0 lf 1023,4 hPa 0,0 l/m 0 min 0 min 18 W/m 8,4 km/h (2 Bft) 97,87 %
23.04.2017 20:10 9,1 C 8,9 C 7,8 C 70 % 0 lf 1023,4 hPa 0,0 l/m 0 min 0 min 17 W/m 8,4 km/h (2 Bft) 100,00 %
23.04.2017 20:12 9,1 C 8,9 C 7,8 C 70 % 0 lf 1023,4 hPa 0,0 l/m 0 min 0 min 16 W/m 4,2 km/h (1 Bft) 97,92 %
23.04.2017 20:14 9,1 C 8,9 C 7,8 C 70 % 0 lf 1023,4 hPa 0,0 l/m 0 min 0 min 14 W/m 4,2 km/h (1 Bft) 100,00 %
23.04.2017 20:16 9,1 C 8,9 C 7,8 C 70 % 0 lf 1023,4 hPa 0,0 l/m 0 min 0 min 12 W/m 6,3 km/h (2 Bft) 100,00 %
23.04.2017 20:18 9,1 C 8,9 C 7,8 C 71 % 0 lf 1023,4 hPa 0,0 l/m 0 min 0 min 12 W/m 8,4 km/h (2 Bft) 100,00 %
23.04.2017 20:20 9,0 C 8,9 C 7,8 C 71 % 0 lf 1023,4 hPa 0,0 l/m 0 min 0 min 11 W/m 8,4 km/h (2 Bft) 100,00 %
23.04.2017 20:22 9,0 C 8,9 C 7,8 C 71 % 0 lf 1023,4 hPa 0,0 l/m 0 min 0 min 10 W/m 8,4 km/h (2 Bft) 97,87 %
23.04.2017 20:24 9,0 C 8,9 C 7,8 C 71 % 0 lf 1023,3 hPa 0,0 l/m 0 min 0 min 9 W/m 6,3 km/h (2 Bft) 100,00 %
23.04.2017 20:26 9,0 C 8,9 C 7,8 C 71 % 0 lf 1023,4 hPa 0,0 l/m 0 min 0 min 8 W/m 6,3 km/h (2 Bft) 97,87 %
23.04.2017 20:28 9,0 C 8,9 C 7,8 C 71 % 0 lf 1023,4 hPa 0,0 l/m 0 min 0 min 7 W/m 6,3 km/h (2 Bft) 95,74 %
23.04.2017 20:30 8,9 C 8,9 C 7,2 C 71 % 0 lf 1023,3 hPa 0,0 l/m 0 min 0 min 7 W/m 4,2 km/h (1 Bft) 95,74 %
23.04.2017 20:32 8,9 C 8,9 C 7,2 C 71 % 0 lf 1023,4 hPa 0,0 l/m 0 min 0 min 7 W/m 6,3 km/h (2 Bft) 93,48 %
23.04.2017 20:34 8,9 C 8,9 C 7,2 C 71 % 0 lf 1023,4 hPa 0,0 l/m 0 min 0 min 6 W/m 6,3 km/h (2 Bft) 95,74 %
23.04.2017 20:36 8,9 C 8,3 C 7,2 C 71 % 0 lf 1023,4 hPa 0,0 l/m 0 min 0 min 5 W/m 6,3 km/h (2 Bft) 95,74 %
23.04.2017 20:38 8,9 C 8,3 C 7,2 C 71 % 0 lf 1023,5 hPa 0,0 l/m 0 min 0 min 5 W/m 6,3 km/h (2 Bft) 93,62 %
23.04.2017 20:40 8,9 C 8,3 C 7,2 C 71 % 0 lf 1023,4 hPa 0,0 l/m 0 min 0 min 5 W/m 6,3 km/h (2 Bft) 97,87 %
23.04.2017 20:42 8,9 C 8,3 C 7,2 C 71 % 0 lf 1023,5 hPa 0,0 l/m 0 min 0 min 5 W/m 6,3 km/h (2 Bft) 91,49 %
23.04.2017 20:44 8,8 C 8,3 C 7,2 C 71 % 0 lf 1023,4 hPa 0,0 l/m 0 min 0 min 5 W/m 6,3 km/h (2 Bft) 93,48 %
23.04.2017 20:46 8,8 C 8,3 C 7,2 C 71 % 0 lf 1023,4 hPa 0,0 l/m 0 min 0 min 3 W/m 6,3 km/h (2 Bft) 95,74 %
23.04.2017 20:48 8,8 C 8,3 C 7,2 C 71 % 0 lf 1023,4 hPa 0,0 l/m 0 min 0 min 0 W/m 6,3 km/h (2 Bft) 92,73 %
23.04.2017 20:50 8,8 C 8,3 C 7,2 C 71 % 0 lf 1023,4 hPa 0,0 l/m 0 min 0 min 0 W/m 6,3 km/h (2 Bft) 93,62 %
23.04.2017 20:52 8,8 C 8,3 C 7,2 C 71 % 0 lf 1023,4 hPa 0,0 l/m 0 min 0 min 0 W/m 4,2 km/h (1 Bft) 93,62 %
23.04.2017 20:54 8,8 C 8,3 C 7,2 C 71 % 0 lf 1023,4 hPa 0,0 l/m 0 min 0 min 0 W/m 4,2 km/h (1 Bft) 94,74 %
23.04.2017 20:56 8,7 C 8,3 C 7,2 C 71 % 0 lf 1023,4 hPa 0,0 l/m 0 min 0 min 0 W/m 4,2 km/h (1 Bft) 93,62 %
23.04.2017 20:58 8,7 C 8,3 C 7,2 C 71 % 0 lf 1023,5 hPa 0,0 l/m 0 min 0 min 0 W/m 4,2 km/h (1 Bft) 93,62 %
23.04.2017 21:00 8,7 C 8,3 C 7,2 C 71 % 0 lf 1023,4 hPa 0,0 l/m 0 min 0 min 0 W/m 4,2 km/h (1 Bft) 89,36 %
23.04.2017 21:02 8,7 C 8,3 C 7,2 C 71 % 0 lf 1023,4 hPa 0,0 l/m 0 min 0 min 0 W/m 4,2 km/h (1 Bft) 93,62 %
23.04.2017 21:04 8,7 C 8,3 C 7,2 C 71 % 0 lf 1023,4 hPa 0,0 l/m 0 min 0 min 0 W/m 4,2 km/h (1 Bft) 93,62 %
23.04.2017 21:06 8,7 C 8,3 C 7,2 C 72 % 0 lf 1023,4 hPa 0,0 l/m 0 min 0 min 0 W/m 4,2 km/h (1 Bft) 92,73 %
23.04.2017 21:08 8,7 C 8,3 C 7,2 C 72 % 0 lf 1023,4 hPa 0,0 l/m 0 min 0 min 0 W/m 4,2 km/h (1 Bft) 92,11 %
23.04.2017 21:10 8,7 C 8,3 C 7,2 C 72 % 0 lf 1023,5 hPa 0,0 l/m 0 min 0 min 0 W/m 4,2 km/h (1 Bft) 93,62 %
23.04.2017 21:12 8,7 C 8,3 C 7,2 C 72 % 0 lf 1023,5 hPa 0,0 l/m 0 min 0 min 0 W/m 4,2 km/h (1 Bft) 95,65 %
23.04.2017 21:14 8,6 C 8,3 C 7,2 C 72 % 0 lf 1023,5 hPa 0,0 l/m 0 min 0 min 0 W/m 4,2 km/h (1 Bft) 93,62 %
23.04.2017 21:16 8,6 C 8,3 C 7,2 C 71 % 0 lf 1023,5 hPa 0,0 l/m 0 min 0 min 0 W/m 4,2 km/h (1 Bft) 97,87 %
23.04.2017 21:18 8,6 C 8,3 C 7,2 C 71 % 0 lf 1023,5 hPa 0,0 l/m 0 min 0 min 0 W/m 4,2 km/h (1 Bft) 93,62 %
23.04.2017 21:20 8,6 C 8,3 C 7,2 C 71 % 0 lf 1023,5 hPa 0,0 l/m 0 min 0 min 0 W/m 4,2 km/h (1 Bft) 100,00 %
23.04.2017 21:22 8,6 C 8,3 C 7,2 C 71 % 0 lf 1023,5 hPa 0,0 l/m 0 min 0 min 0 W/m 4,2 km/h (1 Bft) 95,74 %
23.04.2017 21:24 8,6 C 8,3 C 7,2 C 72 % 0 lf 1023,5 hPa 0,0 l/m 0 min 0 min 0 W/m 2,1 km/h (1 Bft) 97,83 %
23.04.2017 21:26 8,6 C 8,3 C 7,2 C 71 % 0 lf 1023,5 hPa 0,0 l/m 0 min 0 min 0 W/m 2,1 km/h (1 Bft) 97,92 %
23.04.2017 21:28 8,6 C 8,3 C 7,2 C 72 % 0 lf 1023,5 hPa 0,0 l/m 0 min 0 min 0 W/m 2,1 km/h (1 Bft) 95,74 %
23.04.2017 21:30 8,6 C 8,3 C 7,2 C 72 % 0 lf 1023,5 hPa 0,0 l/m 0 min 0 min 0 W/m 4,2 km/h (1 Bft) 97,83 %
23.04.2017 21:32 8,6 C 8,3 C 7,2 C 72 % 0 lf 1023,5 hPa 0,0 l/m 0 min 0 min 0 W/m 2,1 km/h (1 Bft) 97,87 %
23.04.2017 21:34 8,5 C 8,3 C 7,2 C 72 % 0 lf 1023,5 hPa 0,0 l/m 0 min 0 min 0 W/m 4,2 km/h (1 Bft) 97,87 %
23.04.2017 21:36 8,5 C 8,3 C 7,2 C 72 % 0 lf 1023,5 hPa 0,0 l/m 0 min 0 min 0 W/m 4,2 km/h (1 Bft) 93,62 %
23.04.2017 21:38 8,5 C 8,3 C 7,2 C 72 % 0 lf 1023,5 hPa 0,0 l/m 0 min 0 min 0 W/m 4,2 km/h (1 Bft) 95,74 %
23.04.2017 21:40 8,5 C 8,3 C 6,7 C 72 % 0 lf 1023,5 hPa 0,0 l/m 0 min 0 min 0 W/m 4,2 km/h (1 Bft) 95,74 %
23.04.2017 21:42 8,5 C 8,3 C 6,7 C 72 % 0 lf 1023,5 hPa 0,0 l/m 0 min 0 min 0 W/m 4,2 km/h (1 Bft) 95,65 %
23.04.2017 21:44 8,5 C 8,3 C 6,7 C 72 % 0 lf 1023,5 hPa 0,0 l/m 0 min 0 min 0 W/m 4,2 km/h (1 Bft) 94,64 %
23.04.2017 21:46 8,4 C 8,3 C 6,7 C 72 % 0 lf 1023,5 hPa 0,0 l/m 0 min 0 min 0 W/m 4,2 km/h (1 Bft) 95,65 %
23.04.2017 21:48 8,4 C 8,3 C 6,7 C 72 % 0 lf 1023,5 hPa 0,0 l/m 0 min 0 min 0 W/m 4,2 km/h (1 Bft) 95,74 %
23.04.2017 21:50 8,4 C 8,3 C 6,7 C 72 % 0 lf 1023,5 hPa 0,0 l/m 0 min 0 min 0 W/m 4,2 km/h (1 Bft) 95,74 %
23.04.2017 21:52 8,4 C 7,8 C 6,7 C 72 % 0 lf 1023,5 hPa 0,0 l/m 0 min 0 min 0 W/m 2,1 km/h (1 Bft) 93,62 %
23.04.2017 21:54 8,4 C 7,8 C 6,7 C 72 % 0 lf 1023,5 hPa 0,0 l/m 0 min 0 min 0 W/m 2,1 km/h (1 Bft) 93,62 %
23.04.2017 21:56 8,4 C 7,8 C 6,7 C 72 % 0 lf 1023,5 hPa 0,0 l/m 0 min 0 min 0 W/m 2,1 km/h (1 Bft) 94,74 %
23.04.2017 21:58 8,4 C 7,8 C 6,7 C 72 % 0 lf 1023,4 hPa 0,0 l/m 0 min 0 min 0 W/m 2,1 km/h (1 Bft) 95,74 %
23.04.2017 22:00 8,4 C 7,8 C 6,7 C 72 % 0 lf 1023,4 hPa 0,0 l/m 0 min 0 min 0 W/m 0,0 km/h (0 Bft) 95,74 %
23.04.2017 22:02 8,4 C 7,8 C 6,7 C 72 % 0 lf 1023,4 hPa 0,0 l/m 0 min 0 min 0 W/m 0,0 km/h (0 Bft) 97,87 %
23.04.2017 22:04 8,4 C 7,8 C 6,7 C 72 % 0 lf 1023,5 hPa 0,0 l/m 0 min 0 min 0 W/m 0,0 km/h (0 Bft) 95,74 %
23.04.2017 22:06 8,3 C 7,8 C 6,7 C 72 % 0 lf 1023,5 hPa 0,0 l/m 0 min 0 min 0 W/m 0,0 km/h (0 Bft) 93,48 %
23.04.2017 22:08 8,3 C 7,8 C 6,7 C 72 % 0 lf 1023,4 hPa 0,0 l/m 0 min 0 min 0 W/m 0,0 km/h (0 Bft) 95,74 %
23.04.2017 22:10 8,3 C 7,8 C 6,1 C 72 % 0 lf 1023,4 hPa 0,0 l/m 0 min 0 min 0 W/m 0,0 km/h (0 Bft) 98,18 %
23.04.2017 22:12 8,3 C 7,8 C 6,1 C 72 % 0 lf 1023,4 hPa 0,0 l/m 0 min 0 min 0 W/m 0,0 km/h (0 Bft) 94,74 %
23.04.2017 22:14 8,3 C 7,8 C 6,1 C 72 % 0 lf 1023,4 hPa 0,0 l/m 0 min 0 min 0 W/m 0,0 km/h (0 Bft) 97,92 %
23.04.2017 22:16 8,3 C 7,8 C 6,1 C 73 % 0 lf 1023,4 hPa 0,0 l/m 0 min 0 min 0 W/m 0,0 km/h (0 Bft) 95,65 %
23.04.2017 22:18 8,3 C 7,2 C 6,1 C 73 % 0 lf 1023,3 hPa 0,0 l/m 0 min 0 min 0 W/m 0,0 km/h (0 Bft) 98,21 %
23.04.2017 22:20 8,3 C 7,2 C 6,1 C 73 % 0 lf 1023,3 hPa 0,0 l/m 0 min 0 min 0 W/m 0,0 km/h (0 Bft) 97,37 %
23.04.2017 22:22 8,2 C 7,2 C 6,1 C 73 % 0 lf 1023,3 hPa 0,0 l/m 0 min 0 min 0 W/m 0,0 km/h (0 Bft) 100,00 %
23.04.2017 22:24 8,2 C 7,2 C 6,1 C 73 % 0 lf 1023,3 hPa 0,0 l/m 0 min 0 min 0 W/m 0,0 km/h (0 Bft) 100,00 %
23.04.2017 22:26 8,2 C 7,2 C 6,1 C 73 % 0 lf 1023,3 hPa 0,0 l/m 0 min 0 min 0 W/m 0,0 km/h (0 Bft) 95,83 %
23.04.2017 22:28 8,2 C 7,2 C 6,1 C 73 % 0 lf 1023,3 hPa 0,0 l/m 0 min 0 min 0 W/m 0,0 km/h (0 Bft) 100,00 %
23.04.2017 22:30 8,2 C 7,2 C 5,6 C 74 % 0 lf 1023,2 hPa 0,0 l/m 0 min 0 min 0 W/m 0,0 km/h (0 Bft) 98,21 %
23.04.2017 22:32 8,2 C 7,2 C 5,6 C 74 % 0 lf 1023,2 hPa 0,0 l/m 0 min 0 min 0 W/m 0,0 km/h (0 Bft) 97,83 %
23.04.2017 22:34 8,2 C 7,2 C 5,6 C 74 % 0 lf 1023,2 hPa 0,0 l/m 0 min 0 min 0 W/m 0,0 km/h (0 Bft) 97,87 %
23.04.2017 22:36 8,1 C 7,2 C 5,6 C 74 % 0 lf 1023,2 hPa 0,0 l/m 0 min 0 min 0 W/m 0,0 km/h (0 Bft) 94,74 %
23.04.2017 22:38 8,1 C 7,2 C 5,6 C 74 % 0 lf 1023,1 hPa 0,0 l/m 0 min 0 min 0 W/m 0,0 km/h (0 Bft) 97,92 %
23.04.2017 22:40 8,1 C 7,2 C 5,6 C 74 % 0 lf 1023,1 hPa 0,0 l/m 0 min 0 min 0 W/m 0,0 km/h (0 Bft) 97,83 %
23.04.2017 22:42 8,1 C 7,2 C 5,6 C 74 % 0 lf 1023,1 hPa 0,0 l/m 0 min 0 min 0 W/m 0,0 km/h (0 Bft) 95,74 %
23.04.2017 22:44 8,1 C 7,2 C 5,6 C 74 % 0 lf 1023,1 hPa 0,0 l/m 0 min 0 min 0 W/m 0,0 km/h (0 Bft) 96,36 %
23.04.2017 22:46 8,0 C 7,2 C 5,6 C 74 % 0 lf 1023,1 hPa 0,0 l/m 0 min 0 min 0 W/m 0,0 km/h (0 Bft) 97,37 %
23.04.2017 22:48 8,0 C 6,7 C 5,6 C 74 % 0 lf 1023,1 hPa 0,0 l/m 0 min 0 min 0 W/m 0,0 km/h (0 Bft) 97,87 %
23.04.2017 22:50 8,0 C 6,7 C 5,6 C 75 % 0 lf 1023,0 hPa 0,0 l/m 0 min 0 min 0 W/m 0,0 km/h (0 Bft) 95,74 %
23.04.2017 22:52 7,9 C 6,7 C 5,6 C 75 % 0 lf 1023,0 hPa 0,0 l/m 0 min 0 min 0 W/m 0,0 km/h (0 Bft) 95,74 %
23.04.2017 22:54 7,9 C 6,7 C 5,6 C 75 % 0 lf 1023,0 hPa 0,0 l/m 0 min 0 min 0 W/m 0,0 km/h (0 Bft) 97,87 %
23.04.2017 22:56 7,9 C 6,7 C 5,0 C 75 % 0 lf 1023,0 hPa 0,0 l/m 0 min 0 min 0 W/m 0,0 km/h (0 Bft) 97,87 %
23.04.2017 22:58 7,9 C 6,7 C 5,0 C 75 % 0 lf 1022,9 hPa 0,0 l/m 0 min 0 min 0 W/m 0,0 km/h (0 Bft) 95,65 %
23.04.2017 23:00 7,8 C 6,7 C 5,0 C 75 % 0 lf 1022,9 hPa 0,0 l/m 0 min 0 min 0 W/m 0,0 km/h (0 Bft) 97,87 %
23.04.2017 23:02 7,8 C 6,7 C 5,0 C 75 % 0 lf 1022,9 hPa 0,0 l/m 0 min 0 min 0 W/m 0,0 km/h (0 Bft) 97,92 %
23.04.2017 23:04 7,8 C 6,7 C 5,0 C 76 % 0 lf 1022,9 hPa 0,0 l/m 0 min 0 min 0 W/m 0,0 km/h (0 Bft) 97,83 %
23.04.2017 23:06 7,8 C 6,7 C 5,0 C 76 % 0 lf 1022,9 hPa 0,0 l/m 0 min 0 min 0 W/m 0,0 km/h (0 Bft) 97,87 %
23.04.2017 23:08 7,7 C 6,7 C 4,4 C 76 % 0 lf 1022,9 hPa 0,0 l/m 0 min 0 min 0 W/m 0,0 km/h (0 Bft) 100,00 %
23.04.2017 23:10 7,7 C 6,7 C 4,4 C 76 % 0 lf 1022,9 hPa 0,0 l/m 0 min 0 min 0 W/m 0,0 km/h (0 Bft) 98,18 %
23.04.2017 23:12 7,7 C 6,1 C 4,4 C 76 % 0 lf 1022,9 hPa 0,0 l/m 0 min 0 min 0 W/m 0,0 km/h (0 Bft) 97,37 %
23.04.2017 23:14 7,6 C 6,1 C 4,4 C 76 % 0 lf 1022,9 hPa 0,0 l/m 0 min 0 min 0 W/m 0,0 km/h (0 Bft) 100,00 %
23.04.2017 23:16 7,6 C 6,1 C 3,9 C 76 % 0 lf 1022,8 hPa 0,0 l/m 0 min 0 min 0 W/m 0,0 km/h (0 Bft) 100,00 %
23.04.2017 23:18 7,6 C 6,1 C 3,9 C 77 % 0 lf 1022,8 hPa 0,0 l/m 0 min 0 min 0 W/m 0,0 km/h (0 Bft) 100,00 %
23.04.2017 23:20 7,5 C 6,1 C 3,9 C 77 % 0 lf 1022,8 hPa 0,0 l/m 0 min 0 min 0 W/m 0,0 km/h (0 Bft) 97,44 %
23.04.2017 23:22 7,5 C 6,1 C 3,9 C 77 % 0 lf 1022,8 hPa 0,0 l/m 0 min 0 min 0 W/m 0,0 km/h (0 Bft) 97,83 %
23.04.2017 23:24 7,4 C 6,1 C 3,3 C 78 % 0 lf 1022,8 hPa 0,0 l/m 0 min 0 min 0 W/m 0,0 km/h (0 Bft) 95,83 %
23.04.2017 23:26 7,4 C 5,6 C 3,3 C 78 % 0 lf 1022,8 hPa 0,0 l/m 0 min 0 min 0 W/m 0,0 km/h (0 Bft) 97,87 %
23.04.2017 23:28 7,3 C 5,0 C 3,3 C 77 % 0 lf 1022,8 hPa 0,0 l/m 0 min 0 min 0 W/m 0,0 km/h (0 Bft) 96,36 %
23.04.2017 23:30 7,3 C 5,0 C 3,3 C 78 % 0 lf 1022,7 hPa 0,0 l/m 0 min 0 min 0 W/m 0,0 km/h (0 Bft) 97,37 %
23.04.2017 23:32 7,2 C 5,0 C 3,3 C 78 % 0 lf 1022,7 hPa 0,0 l/m 0 min 0 min 0 W/m 0,0 km/h (0 Bft) 95,74 %
23.04.2017 23:34 7,2 C 5,0 C 2,8 C 78 % 0 lf 1022,7 hPa 0,0 l/m 0 min 0 min 0 W/m 0,0 km/h (0 Bft) 97,87 %
23.04.2017 23:36 7,1 C 5,0 C 2,8 C 78 % 0 lf 1022,7 hPa 0,0 l/m 0 min 0 min 0 W/m 0,0 km/h (0 Bft) 97,87 %
23.04.2017 23:38 7,0 C 5,0 C 2,8 C 78 % 0 lf 1022,7 hPa 0,0 l/m 0 min 0 min 0 W/m 0,0 km/h (0 Bft) 97,83 %
23.04.2017 23:40 6,9 C 5,0 C 2,8 C 78 % 0 lf 1022,7 hPa 0,0 l/m 0 min 0 min 0 W/m 0,0 km/h (0 Bft) 96,43 %
23.04.2017 23:42 6,9 C 5,0 C 2,8 C 78 % 0 lf 1022,7 hPa 0,0 l/m 0 min 0 min 0 W/m 0,0 km/h (0 Bft) 97,37 %
23.04.2017 23:44 6,8 C 5,0 C 2,8 C 78 % 0 lf 1022,7 hPa 0,0 l/m 0 min 0 min 0 W/m 0,0 km/h (0 Bft) 93,62 %
23.04.2017 23:46 6,8 C 5,0 C 2,8 C 78 % 0 lf 1022,6 hPa 0,0 l/m 0 min 0 min 0 W/m 0,0 km/h (0 Bft) 97,87 %
23.04.2017 23:48 6,7 C 5,0 C 2,8 C 78 % 0 lf 1022,6 hPa 0,0 l/m 0 min 0 min 0 W/m 0,0 km/h (0 Bft) 96,36 %
23.04.2017 23:50 6,7 C 5,0 C 2,8 C 78 % 0 lf 1022,6 hPa 0,0 l/m 0 min 0 min 0 W/m 0,0 km/h (0 Bft) 92,11 %
23.04.2017 23:52 6,6 C 4,4 C 2,8 C 79 % 0 lf 1022,6 hPa 0,0 l/m 0 min 0 min 0 W/m 0,0 km/h (0 Bft) 95,74 %
23.04.2017 23:54 6,5 C 4,4 C 2,2 C 79 % 0 lf 1022,6 hPa 0,0 l/m 0 min 0 min 0 W/m 0,0 km/h (0 Bft) 95,74 %
23.04.2017 23:56 6,4 C 4,4 C 2,2 C 79 % 0 lf 1022,6 hPa 0,0 l/m 0 min 0 min 0 W/m 0,0 km/h (0 Bft) 97,83 %
23.04.2017 23:58 6,4 C 4,4 C 2,2 C 79 % 0 lf 1022,6 hPa 0,0 l/m 0 min 0 min 0 W/m 0,0 km/h (0 Bft) 97,87 %
_ Min-Zeit 03:54 03:18 02:50 11:42 00:00 23:46 - - - - 22:00 10:02
Minimum _ 2,2 C 1,1 C 0,0 C 55 % 0 lf 1022,6 hPa - - - - 0,0 km/h (0 Bft) 87,23 %
_ Max-Zeit 14:40 13:44 14:32 07:08 15:36 11:42 00:00 10:14 15:36 13:44 15:40 00:58
Maximum _ 11,8 C 23,3 C 18,9 C 92 % 3 lf 1025,5 hPa 0,0 l/m 4 min 2 min 962 W/m 33,5 km/h
N-NO (5 Bft)
100,00 %
Durchschnitt _ 7,3 C 9,2 C 7,0 C 74 % 0 lf 1024,4 hPa #0,0 l/m #6:22 h #6 min. 237 W/m 11,8 km/h (2 Bft) 96,56 %
© 2017 W. Hausmann